Time,TemperatureF,DewpointF,PressureIn,WindDirection,WindDirectionDegrees,WindSpeedMPH,WindSpeedGustMPH,Humidity,HourlyPrecipIn,Conditions,Clouds,dailyrainin,SoftwareType,DateUTC
2012-10-09 00:00:00,39.6,30.6,30.38,East,90,2.0,3.0,70,0.00,,,0.02,meteohub,2012-10-09 04:00:00,
2012-10-09 00:01:00,39.6,30.6,30.38,East,90,2.0,3.0,70,0.00,,,0.02,meteohub,2012-10-09 04:01:00,
2012-10-09 00:05:00,39.4,30.4,30.38,East,90,2.0,3.0,70,0.00,,,0.00,meteohub,2012-10-09 04:05:00,
2012-10-09 00:06:00,39.6,30.6,30.38,SE,135,2.0,3.0,70,0.00,,,0.00,meteohub,2012-10-09 04:06:00,
2012-10-09 00:07:00,39.4,30.4,30.38,SE,135,2.0,3.0,70,0.00,,,0.00,meteohub,2012-10-09 04:07:00,
2012-10-09 00:11:00,39.4,30.4,30.38,East,90,0.0,3.0,70,0.00,,,0.00,meteohub,2012-10-09 04:11:00,
2012-10-09 00:12:00,39.4,30.4,30.38,East,90,2.0,3.0,70,0.00,,,0.00,meteohub,2012-10-09 04:12:00,
2012-10-09 00:16:00,39.4,30.4,30.38,SE,135,0.0,3.0,70,0.00,,,0.00,meteohub,2012-10-09 04:16:00,
2012-10-09 00:17:00,39.4,30.4,30.38,SE,135,0.0,3.0,70,0.00,,,0.00,meteohub,2012-10-09 04:17:00,
2012-10-09 00:18:00,39.4,30.4,30.38,SE,135,0.0,3.0,70,0.00,,,0.00,meteohub,2012-10-09 04:18:00,
2012-10-09 00:21:00,39.4,30.4,30.37,East,90,0.0,2.0,70,0.00,,,0.00,meteohub,2012-10-09 04:21:00,
2012-10-09 00:22:00,39.4,30.4,30.37,East,90,0.0,2.0,70,0.00,,,0.00,meteohub,2012-10-09 04:22:00,
2012-10-09 00:24:00,39.4,30.4,30.37,East,90,0.0,2.0,70,0.00,,,0.00,meteohub,2012-10-09 04:24:00,
2012-10-09 00:26:00,39.4,30.4,30.37,East,90,0.0,2.0,70,0.00,,,0.00,meteohub,2012-10-09 04:26:00,
2012-10-09 00:27:00,39.4,30.4,30.37,SE,135,0.0,2.0,70,0.00,,,0.00,meteohub,2012-10-09 04:27:00,
2012-10-09 00:29:00,39.4,30.4,30.37,SE,135,0.0,2.0,70,0.00,,,0.00,meteohub,2012-10-09 04:29:00,
2012-10-09 00:30:00,39.4,30.4,30.37,SE,135,0.0,2.0,70,0.00,,,0.00,meteohub,2012-10-09 04:30:00,
2012-10-09 00:32:00,39.4,30.4,30.37,East,90,0.0,2.0,70,0.00,,,0.00,meteohub,2012-10-09 04:32:00,
2012-10-09 00:33:00,39.4,30.4,30.37,East,90,0.0,2.0,70,0.00,,,0.00,meteohub,2012-10-09 04:33:00,
2012-10-09 00:35:00,39.4,30.4,30.37,East,90,0.0,0.0,70,0.00,,,0.00,meteohub,2012-10-09 04:35:00,
2012-10-09 00:36:00,39.4,30.4,30.37,East,90,0.0,0.0,70,0.00,,,0.00,meteohub,2012-10-09 04:36:00,
2012-10-09 00:37:00,39.4,30.4,30.37,East,90,0.0,0.0,70,0.00,,,0.00,meteohub,2012-10-09 04:37:00,
2012-10-09 00:40:00,39.4,30.4,30.37,East,90,0.0,0.0,70,0.00,,,0.00,meteohub,2012-10-09 04:40:00,
2012-10-09 00:41:00,39.4,30.4,30.37,East,90,0.0,0.0,70,0.00,,,0.00,meteohub,2012-10-09 04:41:00,
2012-10-09 00:42:00,39.4,30.0,30.37,East,90,2.0,0.0,69,0.00,,,0.00,meteohub,2012-10-09 04:42:00,
2012-10-09 00:45:00,39.2,29.8,30.37,SE,135,1.0,0.0,69,0.00,,,0.00,meteohub,2012-10-09 04:45:00,
2012-10-09 00:46:00,39.2,29.8,30.37,SE,135,0.0,2.0,69,0.00,,,0.00,meteohub,2012-10-09 04:46:00,
2012-10-09 00:47:00,39.2,29.8,30.37,SE,135,0.0,2.0,69,0.00,,,0.00,meteohub,2012-10-09 04:47:00,
2012-10-09 00:48:00,39.2,29.8,30.37,SE,135,0.0,2.0,69,0.00,,,0.00,meteohub,2012-10-09 04:48:00,
2012-10-09 00:51:00,39.0,29.7,30.37,SE,135,2.0,2.0,69,0.00,,,0.00,meteohub,2012-10-09 04:51:00,
2012-10-09 00:52:00,39.0,29.7,30.37,SE,135,2.0,2.0,69,0.00,,,0.00,meteohub,2012-10-09 04:52:00,
2012-10-09 00:53:00,39.0,29.7,30.38,SE,135,1.0,2.0,69,0.00,,,0.00,meteohub,2012-10-09 04:53:00,
2012-10-09 00:57:00,38.8,29.5,30.37,NE,45,0.0,2.0,69,0.00,,,0.00,meteohub,2012-10-09 04:57:00,
2012-10-09 00:58:00,38.8,29.5,30.37,NE,45,0.0,2.0,69,0.00,,,0.00,meteohub,2012-10-09 04:58:00,
2012-10-09 00:59:00,38.8,29.5,30.37,NE,45,0.0,2.0,69,0.00,,,0.00,meteohub,2012-10-09 04:59:00,
2012-10-09 01:02:00,38.7,29.3,30.38,NE,45,0.0,2.0,69,0.00,,,0.00,meteohub,2012-10-09 05:02:00,
2012-10-09 01:03:00,38.7,29.3,30.38,NE,45,0.0,2.0,69,0.00,,,0.00,meteohub,2012-10-09 05:03:00,
2012-10-09 01:05:00,38.5,29.1,30.37,NE,45,0.0,2.0,69,0.00,,,0.00,meteohub,2012-10-09 05:05:00,
2012-10-09 01:07:00,38.5,29.1,30.38,East,90,0.0,2.0,69,0.00,,,0.00,meteohub,2012-10-09 05:07:00,
2012-10-09 01:08:00,38.5,29.1,30.38,East,90,0.0,2.0,69,0.00,,,0.00,meteohub,2012-10-09 05:08:00,
2012-10-09 01:09:00,38.3,28.9,30.37,East,90,0.0,2.0,69,0.00,,,0.00,meteohub,2012-10-09 05:09:00,
2012-10-09 01:11:00,38.3,28.9,30.38,East,90,2.0,0.0,69,0.00,,,0.00,meteohub,2012-10-09 05:11:00,
2012-10-09 01:13:00,38.3,28.9,30.38,SE,135,0.0,0.0,69,0.00,,,0.00,meteohub,2012-10-09 05:13:00,
2012-10-09 01:14:00,38.3,28.9,30.38,SE,135,0.0,0.0,69,0.00,,,0.00,meteohub,2012-10-09 05:14:00,
2012-10-09 01:15:00,38.3,28.9,30.37,East,90,0.0,2.0,69,0.00,,,0.00,meteohub,2012-10-09 05:15:00,
2012-10-09 01:16:00,38.3,29.3,30.38,East,90,0.0,2.0,70,0.00,,,0.00,meteohub,2012-10-09 05:16:00,
2012-10-09 01:19:00,38.3,29.3,30.37,East,90,0.0,2.0,70,0.00,,,0.00,meteohub,2012-10-09 05:19:00,
2012-10-09 01:20:00,38.3,29.3,30.37,East,90,0.0,2.0,70,0.00,,,0.00,meteohub,2012-10-09 05:20:00,
2012-10-09 01:21:00,38.3,29.3,30.37,SE,135,0.0,2.0,70,0.00,,,0.00,meteohub,2012-10-09 05:21:00,
2012-10-09 01:24:00,38.5,29.8,30.37,SE,135,0.0,2.0,71,0.00,,,0.00,meteohub,2012-10-09 05:24:00,
2012-10-09 01:26:00,38.5,29.8,30.36,East,90,1.0,2.0,71,0.00,,,0.00,meteohub,2012-10-09 05:26:00,
2012-10-09 01:29:00,38.7,30.4,30.37,South,180,0.0,2.0,72,0.00,,,0.00,meteohub,2012-10-09 05:29:00,
2012-10-09 01:31:00,38.7,30.4,30.37,SE,135,0.0,3.0,72,0.00,,,0.00,meteohub,2012-10-09 05:31:00,
2012-10-09 01:32:00,38.7,30.4,30.37,SE,135,2.0,3.0,72,0.00,,,0.00,meteohub,2012-10-09 05:32:00,
2012-10-09 01:35:00,38.8,30.6,30.37,SSE,158,4.0,4.0,72,0.00,,,0.00,meteohub,2012-10-09 05:35:00,
2012-10-09 01:36:00,38.8,30.6,30.37,SE,135,5.0,5.0,72,0.00,,,0.00,meteohub,2012-10-09 05:36:00,
2012-10-09 01:37:00,38.8,30.2,30.37,SE,135,2.0,3.0,71,0.00,,,0.00,meteohub,2012-10-09 05:37:00,
2012-10-09 01:41:00,39.0,30.4,30.37,South,180,2.0,5.0,71,0.00,,,0.00,meteohub,2012-10-09 05:41:00,
2012-10-09 01:42:00,39.0,30.4,30.37,East,90,1.0,5.0,71,0.00,,,0.00,meteohub,2012-10-09 05:42:00,
2012-10-09 01:43:00,39.2,30.6,30.37,East,90,2.0,5.0,71,0.00,,,0.00,meteohub,2012-10-09 05:43:00,
2012-10-09 01:46:00,39.2,30.6,30.37,East,90,1.0,5.0,71,0.00,,,0.00,meteohub,2012-10-09 05:46:00,
2012-10-09 01:47:00,39.2,30.6,30.37,East,90,0.0,5.0,71,0.00,,,0.00,meteohub,2012-10-09 05:47:00,
2012-10-09 01:49:00,39.4,30.7,30.37,NE,45,2.0,5.0,71,0.00,,,0.00,meteohub,2012-10-09 05:49:00,
2012-10-09 01:51:00,39.4,30.7,30.37,East,90,2.0,5.0,71,0.00,,,0.00,meteohub,2012-10-09 05:51:00,
2012-10-09 01:53:00,39.4,30.4,30.37,East,90,2.0,5.0,70,0.00,,,0.00,meteohub,2012-10-09 05:53:00,
2012-10-09 01:55:00,39.4,30.4,30.37,East,90,1.0,4.0,70,0.00,,,0.00,meteohub,2012-10-09 05:55:00,
2012-10-09 01:57:00,39.4,30.4,30.37,NE,45,2.0,4.0,70,0.00,,,0.00,meteohub,2012-10-09 05:57:00,
2012-10-09 01:58:00,39.4,30.4,30.37,SE,135,2.0,4.0,70,0.00,,,0.00,meteohub,2012-10-09 05:58:00,
2012-10-09 02:00:00,39.4,30.4,30.38,SE,135,2.0,2.0,70,0.00,,,0.00,meteohub,2012-10-09 06:00:00,
2012-10-09 02:02:00,39.4,30.0,30.37,East,90,2.0,2.0,69,0.00,,,0.00,meteohub,2012-10-09 06:02:00,
2012-10-09 02:04:00,39.4,30.0,30.37,NE,45,2.0,2.0,69,0.00,,,0.00,meteohub,2012-10-09 06:04:00,
2012-10-09 02:05:00,39.4,30.0,30.37,East,90,1.0,2.0,69,0.00,,,0.00,meteohub,2012-10-09 06:05:00,
2012-10-09 02:07:00,39.2,29.5,30.37,East,90,2.0,2.0,68,0.00,,,0.00,meteohub,2012-10-09 06:07:00,
2012-10-09 02:09:00,39.2,29.5,30.37,East,90,0.0,2.0,68,0.00,,,0.00,meteohub,2012-10-09 06:09:00,
2012-10-09 02:11:00,39.2,29.5,30.37,SE,135,2.0,2.0,68,0.00,,,0.00,meteohub,2012-10-09 06:11:00,
2012-10-09 02:12:00,39.0,29.3,30.37,SE,135,0.0,2.0,68,0.00,,,0.00,meteohub,2012-10-09 06:12:00,
2012-10-09 02:13:00,39.0,29.3,30.37,East,90,0.0,2.0,68,0.00,,,0.00,meteohub,2012-10-09 06:13:00,
2012-10-09 02:16:00,39.0,28.9,30.37,East,90,0.0,2.0,67,0.00,,,0.00,meteohub,2012-10-09 06:16:00,
2012-10-09 02:18:00,38.8,28.8,30.37,East,90,0.0,2.0,67,0.00,,,0.00,meteohub,2012-10-09 06:18:00,
2012-10-09 02:21:00,38.7,28.6,30.37,NE,45,0.0,2.0,67,0.00,,,0.00,meteohub,2012-10-09 06:21:00,
2012-10-09 02:23:00,38.7,28.6,30.37,NE,45,0.0,2.0,67,0.00,,,0.00,meteohub,2012-10-09 06:23:00,
2012-10-09 02:25:00,38.5,28.4,30.37,NE,45,0.0,2.0,67,0.00,,,0.00,meteohub,2012-10-09 06:25:00,
2012-10-09 02:26:00,38.5,28.4,30.37,NE,45,0.0,2.0,67,0.00,,,0.00,meteohub,2012-10-09 06:26:00,
2012-10-09 02:27:00,38.5,28.4,30.37,NE,45,0.0,2.0,67,0.00,,,0.00,meteohub,2012-10-09 06:27:00,
2012-10-09 02:28:00,38.5,28.4,30.37,NE,45,0.0,2.0,67,0.00,,,0.00,meteohub,2012-10-09 06:28:00,
2012-10-09 02:30:00,38.5,28.4,30.37,West,270,0.0,0.0,67,0.00,,,0.00,meteohub,2012-10-09 06:30:00,
2012-10-09 02:32:00,38.5,28.4,30.37,West,270,0.0,0.0,67,0.00,,,0.00,meteohub,2012-10-09 06:32:00,
2012-10-09 02:33:00,38.5,28.4,30.37,West,270,0.0,0.0,67,0.00,,,0.00,meteohub,2012-10-09 06:33:00,
2012-10-09 02:34:00,38.5,28.4,30.37,NW,315,0.0,0.0,67,0.00,,,0.00,meteohub,2012-10-09 06:34:00,
2012-10-09 02:35:00,38.5,28.4,30.37,NW,315,0.0,0.0,67,0.00,,,0.00,meteohub,2012-10-09 06:35:00,
2012-10-09 02:37:00,38.5,28.4,30.37,West,270,0.0,0.0,67,0.00,,,0.00,meteohub,2012-10-09 06:37:00,
2012-10-09 02:39:00,38.5,28.4,30.37,West,270,0.0,0.0,67,0.00,,,0.00,meteohub,2012-10-09 06:39:00,
2012-10-09 02:40:00,38.5,28.4,30.37,West,270,0.0,0.0,67,0.00,,,0.00,meteohub,2012-10-09 06:40:00,
2012-10-09 02:42:00,38.7,28.6,30.37,North,0,1.0,0.0,67,0.00,,,0.00,meteohub,2012-10-09 06:42:00,
2012-10-09 02:44:00,38.7,28.6,30.37,NE,45,1.0,0.0,67,0.00,,,0.00,meteohub,2012-10-09 06:44:00,
2012-10-09 02:45:00,38.7,28.6,30.37,NE,45,1.0,0.0,67,0.00,,,0.00,meteohub,2012-10-09 06:45:00,
2012-10-09 02:46:00,38.8,28.8,30.37,NE,45,0.0,0.0,67,0.00,,,0.00,meteohub,2012-10-09 06:46:00,
2012-10-09 02:48:00,38.8,28.8,30.37,NE,45,0.0,0.0,67,0.00,,,0.00,meteohub,2012-10-09 06:48:00,
2012-10-09 02:50:00,38.8,28.8,30.37,NE,45,0.0,0.0,67,0.00,,,0.00,meteohub,2012-10-09 06:50:00,
2012-10-09 02:51:00,38.8,28.8,30.37,NE,45,0.0,1.0,67,0.00,,,0.00,meteohub,2012-10-09 06:51:00,
2012-10-09 02:53:00,38.8,28.8,30.37,NE,45,0.0,1.0,67,0.00,,,0.00,meteohub,2012-10-09 06:53:00,
2012-10-09 02:55:00,39.0,28.6,30.37,NE,45,0.0,1.0,66,0.00,,,0.00,meteohub,2012-10-09 06:55:00,
2012-10-09 02:56:00,39.0,28.6,30.37,NE,45,0.0,1.0,66,0.00,,,0.00,meteohub,2012-10-09 06:56:00,
2012-10-09 02:57:00,39.0,28.6,30.37,NE,45,0.0,1.0,66,0.00,,,0.00,meteohub,2012-10-09 06:57:00,
2012-10-09 02:58:00,39.0,28.6,30.36,NE,45,0.0,1.0,66,0.00,,,0.00,meteohub,2012-10-09 06:58:00,
2012-10-09 03:01:00,39.0,28.6,30.36,NE,45,0.0,1.0,66,0.00,,,0.00,meteohub,2012-10-09 07:01:00,
2012-10-09 03:02:00,39.0,28.6,30.36,NE,45,0.0,1.0,66,0.00,,,0.00,meteohub,2012-10-09 07:02:00,
2012-10-09 03:06:00,39.0,28.6,30.36,NE,45,0.0,0.0,66,0.00,,,0.00,meteohub,2012-10-09 07:06:00,
2012-10-09 03:08:00,39.2,28.8,30.36,NE,45,0.0,0.0,66,0.00,,,0.00,meteohub,2012-10-09 07:08:00,
2012-10-09 03:11:00,39.2,28.4,30.36,NE,45,0.0,0.0,65,0.00,,,0.00,meteohub,2012-10-09 07:11:00,
2012-10-09 03:12:00,39.2,28.8,30.36,NE,45,0.0,0.0,66,0.00,,,0.00,meteohub,2012-10-09 07:12:00,
2012-10-09 03:13:00,39.2,28.4,30.36,NE,45,0.0,0.0,65,0.00,,,0.00,meteohub,2012-10-09 07:13:00,
2012-10-09 03:16:00,39.2,28.4,30.36,NE,45,0.0,0.0,65,0.00,,,0.00,meteohub,2012-10-09 07:16:00,
2012-10-09 03:17:00,39.2,28.4,30.36,NE,45,0.0,0.0,65,0.00,,,0.00,meteohub,2012-10-09 07:17:00,
2012-10-09 03:18:00,39.2,28.4,30.36,NE,45,0.0,0.0,65,0.00,,,0.00,meteohub,2012-10-09 07:18:00,
2012-10-09 03:21:00,39.2,28.4,30.36,NE,45,0.0,0.0,65,0.00,,,0.00,meteohub,2012-10-09 07:21:00,
2012-10-09 03:22:00,39.2,28.4,30.36,NE,45,0.0,0.0,65,0.00,,,0.00,meteohub,2012-10-09 07:22:00,
2012-10-09 03:24:00,39.4,28.6,30.35,NE,45,0.0,0.0,65,0.00,,,0.00,meteohub,2012-10-09 07:24:00,
2012-10-09 03:28:00,39.4,28.6,30.36,NE,45,0.0,0.0,65,0.00,,,0.00,meteohub,2012-10-09 07:28:00,
2012-10-09 03:29:00,39.4,28.6,30.36,WSW,248,0.0,0.0,65,0.00,,,0.00,meteohub,2012-10-09 07:29:00,
2012-10-09 03:30:00,39.4,28.6,30.35,East,90,0.0,0.0,65,0.00,,,0.00,meteohub,2012-10-09 07:30:00,
2012-10-09 03:33:00,39.4,28.2,30.36,East,90,0.0,0.0,64,0.00,,,0.00,meteohub,2012-10-09 07:33:00,
2012-10-09 03:34:00,39.4,28.2,30.36,East,90,0.0,0.0,64,0.00,,,0.00,meteohub,2012-10-09 07:34:00,
2012-10-09 03:38:00,39.4,28.2,30.36,East,90,2.0,0.0,64,0.00,,,0.00,meteohub,2012-10-09 07:38:00,
2012-10-09 03:39:00,39.6,28.4,30.36,NE,45,1.0,0.0,64,0.00,,,0.00,meteohub,2012-10-09 07:39:00,
2012-10-09 03:44:00,39.7,28.6,30.36,East,90,0.0,0.0,64,0.00,,,0.00,meteohub,2012-10-09 07:44:00,
2012-10-09 03:49:00,39.7,28.6,30.36,North,0,0.0,2.0,64,0.00,,,0.00,meteohub,2012-10-09 07:49:00,
2012-10-09 03:50:00,39.7,28.6,30.36,North,0,0.0,2.0,64,0.00,,,0.00,meteohub,2012-10-09 07:50:00,
2012-10-09 03:55:00,39.7,28.2,30.36,WSW,248,0.0,2.0,63,0.00,,,0.00,meteohub,2012-10-09 07:55:00,
2012-10-09 03:56:00,39.7,28.2,30.36,WSW,248,0.0,2.0,63,0.00,,,0.00,meteohub,2012-10-09 07:56:00,
2012-10-09 04:00:00,39.7,28.2,30.36,NW,315,0.0,0.0,63,0.00,,,0.00,meteohub,2012-10-09 08:00:00,
2012-10-09 04:02:00,39.7,28.2,30.37,WSW,248,0.0,0.0,63,0.00,,,0.00,meteohub,2012-10-09 08:02:00,
2012-10-09 04:06:00,39.7,27.9,30.37,North,0,0.0,0.0,62,0.00,,,0.00,meteohub,2012-10-09 08:06:00,
2012-10-09 04:07:00,39.9,28.0,30.36,North,0,0.0,0.0,62,0.00,,,0.00,meteohub,2012-10-09 08:07:00,
2012-10-09 04:08:00,39.9,28.0,30.36,East,90,0.0,0.0,62,0.00,,,0.00,meteohub,2012-10-09 08:08:00,
2012-10-09 04:11:00,39.9,28.0,30.37,East,90,0.0,0.0,62,0.00,,,0.00,meteohub,2012-10-09 08:11:00,
2012-10-09 04:12:00,39.9,28.0,30.36,NE,45,1.0,0.0,62,0.00,,,0.00,meteohub,2012-10-09 08:12:00,
2012-10-09 04:13:00,39.9,27.5,30.36,NE,45,1.0,0.0,61,0.00,,,0.00,meteohub,2012-10-09 08:13:00,
2012-10-09 04:15:00,39.9,27.5,30.37,East,90,2.0,0.0,61,0.00,,,0.00,meteohub,2012-10-09 08:15:00,
2012-10-09 04:17:00,39.9,27.5,30.37,NE,45,0.0,2.0,61,0.00,,,0.00,meteohub,2012-10-09 08:17:00,
2012-10-09 04:18:00,39.9,27.5,30.36,NE,45,0.0,2.0,61,0.00,,,0.00,meteohub,2012-10-09 08:18:00,
2012-10-09 04:20:00,39.7,27.3,30.36,NE,45,0.0,2.0,61,0.00,,,0.00,meteohub,2012-10-09 08:20:00,
2012-10-09 04:22:00,39.7,27.3,30.36,NE,45,2.0,2.0,61,0.00,,,0.00,meteohub,2012-10-09 08:22:00,
2012-10-09 04:23:00,39.7,27.3,30.36,East,90,1.0,2.0,61,0.00,,,0.00,meteohub,2012-10-09 08:23:00,
2012-10-09 04:26:00,39.7,27.3,30.37,East,90,2.0,2.0,61,0.00,,,0.00,meteohub,2012-10-09 08:26:00,
2012-10-09 04:27:00,39.7,27.3,30.36,East,90,1.0,2.0,61,0.00,,,0.00,meteohub,2012-10-09 08:27:00,
2012-10-09 04:28:00,39.7,27.3,30.37,East,90,1.0,2.0,61,0.00,,,0.00,meteohub,2012-10-09 08:28:00,
2012-10-09 04:29:00,39.7,27.3,30.37,East,90,1.0,2.0,61,0.00,,,0.00,meteohub,2012-10-09 08:29:00,
2012-10-09 04:32:00,39.7,27.3,30.37,East,90,0.0,2.0,61,0.00,,,0.00,meteohub,2012-10-09 08:32:00,
2012-10-09 04:34:00,39.7,27.3,30.36,NE,45,3.0,3.0,61,0.00,,,0.00,meteohub,2012-10-09 08:34:00,
2012-10-09 04:35:00,39.7,27.3,30.37,East,90,2.0,2.0,61,0.00,,,0.00,meteohub,2012-10-09 08:35:00,
2012-10-09 04:38:00,39.7,27.3,30.36,East,90,2.0,3.0,61,0.00,,,0.00,meteohub,2012-10-09 08:38:00,
2012-10-09 04:39:00,39.7,27.3,30.36,East,90,2.0,3.0,61,0.00,,,0.00,meteohub,2012-10-09 08:39:00,
2012-10-09 04:41:00,39.7,27.9,30.36,North,0,2.0,3.0,62,0.00,,,0.00,meteohub,2012-10-09 08:41:00,
2012-10-09 04:44:00,39.9,28.0,30.36,East,90,2.0,3.0,62,0.00,,,0.00,meteohub,2012-10-09 08:44:00,
2012-10-09 04:45:00,39.9,28.0,30.37,NE,45,2.0,3.0,62,0.00,,,0.00,meteohub,2012-10-09 08:45:00,
2012-10-09 04:47:00,39.9,28.0,30.36,East,90,2.0,3.0,62,0.00,,,0.00,meteohub,2012-10-09 08:47:00,
2012-10-09 04:49:00,39.9,28.0,30.36,East,90,1.0,3.0,62,0.00,,,0.00,meteohub,2012-10-09 08:49:00,
2012-10-09 04:50:00,39.9,28.0,30.36,East,90,1.0,3.0,62,0.00,,,0.00,meteohub,2012-10-09 08:50:00,
2012-10-09 04:52:00,39.9,28.0,30.36,East,90,1.0,2.0,62,0.00,,,0.00,meteohub,2012-10-09 08:52:00,
2012-10-09 04:55:00,39.9,28.0,30.36,East,90,2.0,2.0,62,0.00,,,0.00,meteohub,2012-10-09 08:55:00,
2012-10-09 04:56:00,39.9,28.0,30.36,East,90,0.0,2.0,62,0.00,,,0.00,meteohub,2012-10-09 08:56:00,
2012-10-09 04:57:00,39.9,28.0,30.35,NE,45,0.0,2.0,62,0.00,,,0.00,meteohub,2012-10-09 08:57:00,
2012-10-09 04:58:00,39.9,28.0,30.36,East,90,2.0,2.0,62,0.00,,,0.00,meteohub,2012-10-09 08:58:00,
2012-10-09 05:00:00,39.9,28.0,30.36,SE,135,2.0,2.0,62,0.00,,,0.00,meteohub,2012-10-09 09:00:00,
2012-10-09 05:01:00,39.9,28.0,30.36,SE,135,2.0,2.0,62,0.00,,,0.00,meteohub,2012-10-09 09:01:00,
2012-10-09 05:03:00,39.9,28.0,30.36,East,90,2.0,2.0,62,0.00,,,0.00,meteohub,2012-10-09 09:03:00,
2012-10-09 05:05:00,39.9,28.0,30.36,South,180,0.0,2.0,62,0.00,,,0.00,meteohub,2012-10-09 09:05:00,
2012-10-09 05:07:00,39.9,28.4,30.36,East,90,0.0,2.0,63,0.00,,,0.00,meteohub,2012-10-09 09:07:00,
2012-10-09 05:08:00,39.9,28.4,30.36,East,90,0.0,2.0,63,0.00,,,0.00,meteohub,2012-10-09 09:08:00,
2012-10-09 05:10:00,39.9,28.4,30.36,East,90,0.0,2.0,63,0.00,,,0.00,meteohub,2012-10-09 09:10:00,
2012-10-09 05:13:00,39.7,28.2,30.36,SE,135,0.0,2.0,63,0.00,,,0.00,meteohub,2012-10-09 09:13:00,
2012-10-09 05:14:00,39.7,28.2,30.36,NE,45,0.0,2.0,63,0.00,,,0.00,meteohub,2012-10-09 09:14:00,
2012-10-09 05:15:00,39.7,28.2,30.36,East,90,0.0,2.0,63,0.00,,,0.00,meteohub,2012-10-09 09:15:00,
2012-10-09 05:18:00,39.7,28.2,30.36,East,90,3.0,3.0,63,0.00,,,0.00,meteohub,2012-10-09 09:18:00,
2012-10-09 05:19:00,39.7,28.2,30.36,East,90,0.0,2.0,63,0.00,,,0.00,meteohub,2012-10-09 09:19:00,
2012-10-09 05:20:00,39.7,28.2,30.36,South,180,0.0,2.0,63,0.00,,,0.00,meteohub,2012-10-09 09:20:00,
2012-10-09 05:21:00,39.7,28.2,30.36,NE,45,2.0,2.0,63,0.00,,,0.00,meteohub,2012-10-09 09:21:00,
2012-10-09 05:23:00,39.7,28.6,30.36,South,180,2.0,2.0,64,0.00,,,0.00,meteohub,2012-10-09 09:23:00,
2012-10-09 05:25:00,39.7,28.6,30.36,East,90,0.0,2.0,64,0.00,,,0.00,meteohub,2012-10-09 09:25:00,
2012-10-09 05:27:00,39.7,28.6,30.36,East,90,3.0,3.0,64,0.00,,,0.00,meteohub,2012-10-09 09:27:00,
2012-10-09 05:29:00,39.7,28.6,30.36,SE,135,2.0,3.0,64,0.00,,,0.00,meteohub,2012-10-09 09:29:00,
2012-10-09 05:30:00,39.6,28.4,30.36,East,90,2.0,3.0,64,0.00,,,0.00,meteohub,2012-10-09 09:30:00,
2012-10-09 05:32:00,39.6,28.4,30.36,East,90,2.0,3.0,64,0.00,,,0.00,meteohub,2012-10-09 09:32:00,
2012-10-09 05:34:00,39.6,28.8,30.36,East,90,2.0,3.0,65,0.00,,,0.00,meteohub,2012-10-09 09:34:00,
2012-10-09 05:37:00,39.6,28.8,30.37,East,90,2.0,3.0,65,0.00,,,0.00,meteohub,2012-10-09 09:37:00,
2012-10-09 05:38:00,39.6,28.8,30.36,East,90,0.0,3.0,65,0.00,,,0.00,meteohub,2012-10-09 09:38:00,
2012-10-09 05:40:00,39.6,28.8,30.36,East,90,0.0,3.0,65,0.00,,,0.00,meteohub,2012-10-09 09:40:00,
2012-10-09 05:42:00,39.6,28.8,30.36,East,90,0.0,3.0,65,0.00,,,0.00,meteohub,2012-10-09 09:42:00,
2012-10-09 05:43:00,39.6,28.8,30.36,East,90,0.0,3.0,65,0.00,,,0.00,meteohub,2012-10-09 09:43:00,
2012-10-09 05:44:00,39.6,28.8,30.36,East,90,0.0,3.0,65,0.00,,,0.00,meteohub,2012-10-09 09:44:00,
2012-10-09 05:45:00,39.6,28.8,30.36,East,90,0.0,2.0,65,0.00,,,0.00,meteohub,2012-10-09 09:45:00,
2012-10-09 05:48:00,39.6,28.8,30.36,East,90,0.0,2.0,65,0.00,,,0.00,meteohub,2012-10-09 09:48:00,
2012-10-09 05:50:00,39.6,28.8,30.36,East,90,0.0,2.0,65,0.00,,,0.00,meteohub,2012-10-09 09:50:00,
2012-10-09 05:51:00,39.6,28.8,30.36,East,90,0.0,2.0,65,0.00,,,0.00,meteohub,2012-10-09 09:51:00,
2012-10-09 05:53:00,39.6,28.8,30.36,East,90,0.0,2.0,65,0.00,,,0.00,meteohub,2012-10-09 09:53:00,
2012-10-09 05:56:00,39.4,28.6,30.36,East,90,0.0,0.0,65,0.00,,,0.00,meteohub,2012-10-09 09:56:00,
2012-10-09 05:58:00,39.4,28.6,30.36,East,90,2.0,0.0,65,0.00,,,0.00,meteohub,2012-10-09 09:58:00,
2012-10-09 06:00:00,39.4,28.9,30.36,SE,135,2.0,0.0,66,0.00,,,0.00,meteohub,2012-10-09 10:00:00,
2012-10-09 06:01:00,39.4,28.9,30.36,SE,135,2.0,2.0,66,0.00,,,0.00,meteohub,2012-10-09 10:01:00,
2012-10-09 06:02:00,39.4,28.9,30.36,SE,135,2.0,2.0,66,0.00,,,0.00,meteohub,2012-10-09 10:02:00,
2012-10-09 06:04:00,39.4,28.9,30.36,SE,135,2.0,2.0,66,0.00,,,0.00,meteohub,2012-10-09 10:04:00,
2012-10-09 06:05:00,39.4,28.9,30.36,SE,135,2.0,2.0,66,0.00,,,0.00,meteohub,2012-10-09 10:05:00,
2012-10-09 06:06:00,39.4,28.9,30.36,SE,135,2.0,2.0,66,0.00,,,0.00,meteohub,2012-10-09 10:06:00,
2012-10-09 06:07:00,39.4,29.3,30.36,East,90,0.0,2.0,67,0.00,,,0.00,meteohub,2012-10-09 10:07:00,
2012-10-09 06:09:00,39.4,29.3,30.36,East,90,0.0,2.0,67,0.00,,,0.00,meteohub,2012-10-09 10:09:00,
2012-10-09 06:10:00,39.2,29.1,30.36,East,90,0.0,2.0,67,0.00,,,0.00,meteohub,2012-10-09 10:10:00,
2012-10-09 06:12:00,39.4,29.3,30.36,East,90,2.0,2.0,67,0.00,,,0.00,meteohub,2012-10-09 10:12:00,
2012-10-09 06:13:00,39.2,29.1,30.36,East,90,2.0,2.0,67,0.00,,,0.00,meteohub,2012-10-09 10:13:00,
2012-10-09 06:15:00,39.2,29.1,30.36,East,90,3.0,3.0,67,0.00,,,0.00,meteohub,2012-10-09 10:15:00,
2012-10-09 06:16:00,39.2,29.1,30.36,East,90,3.0,3.0,67,0.00,,,0.00,meteohub,2012-10-09 10:16:00,
2012-10-09 06:18:00,39.2,29.1,30.36,East,90,2.0,3.0,67,0.00,,,0.00,meteohub,2012-10-09 10:18:00,
2012-10-09 06:20:00,39.2,29.5,30.36,SE,135,2.0,3.0,68,0.00,,,0.00,meteohub,2012-10-09 10:20:00,
2012-10-09 06:21:00,39.2,29.1,30.36,SE,135,2.0,3.0,67,0.00,,,0.00,meteohub,2012-10-09 10:21:00,
2012-10-09 06:22:00,39.2,29.1,30.36,SE,135,2.0,3.0,67,0.00,,,0.00,meteohub,2012-10-09 10:22:00,
2012-10-09 06:25:00,39.2,29.1,30.36,SE,135,3.0,3.0,67,0.00,,,0.00,meteohub,2012-10-09 10:25:00,
2012-10-09 06:26:00,39.2,29.1,30.36,East,90,2.0,3.0,67,0.00,,,0.00,meteohub,2012-10-09 10:26:00,
2012-10-09 06:27:00,39.2,29.1,30.36,SE,135,3.0,3.0,67,0.00,,,0.00,meteohub,2012-10-09 10:27:00,
2012-10-09 06:30:00,39.2,28.8,30.37,South,180,2.0,3.0,66,0.00,,,0.00,meteohub,2012-10-09 10:30:00,
2012-10-09 06:31:00,39.2,28.8,30.37,South,180,2.0,3.0,66,0.00,,,0.00,meteohub,2012-10-09 10:31:00,
2012-10-09 06:32:00,39.0,28.6,30.37,SE,135,0.0,3.0,66,0.00,,,0.00,meteohub,2012-10-09 10:32:00,
2012-10-09 06:36:00,39.0,28.2,30.37,SE,135,0.0,3.0,65,0.00,,,0.00,meteohub,2012-10-09 10:36:00,
2012-10-09 06:37:00,38.8,28.0,30.37,SE,135,0.0,3.0,65,0.00,,,0.00,meteohub,2012-10-09 10:37:00,
2012-10-09 06:38:00,38.8,27.7,30.37,SE,135,1.0,3.0,64,0.00,,,0.00,meteohub,2012-10-09 10:38:00,
2012-10-09 06:41:00,38.8,27.7,30.37,SE,135,1.0,3.0,64,0.00,,,0.00,meteohub,2012-10-09 10:41:00,
2012-10-09 06:42:00,38.8,27.7,30.37,SE,135,2.0,3.0,64,0.00,,,0.00,meteohub,2012-10-09 10:42:00,
2012-10-09 06:43:00,38.8,27.7,30.38,SE,135,1.0,3.0,64,0.00,,,0.00,meteohub,2012-10-09 10:43:00,
2012-10-09 06:46:00,38.7,27.5,30.37,SE,135,1.0,2.0,64,0.00,,,0.00,meteohub,2012-10-09 10:46:00,
2012-10-09 06:47:00,38.7,27.5,30.37,SE,135,0.0,2.0,64,0.00,,,0.00,meteohub,2012-10-09 10:47:00,
2012-10-09 06:48:00,38.7,27.5,30.37,SE,135,0.0,2.0,64,0.00,,,0.00,meteohub,2012-10-09 10:48:00,
2012-10-09 06:49:00,38.5,27.3,30.37,SE,135,0.0,2.0,64,0.00,,,0.00,meteohub,2012-10-09 10:49:00,
2012-10-09 06:51:00,38.5,27.3,30.37,WSW,248,0.0,2.0,64,0.00,,,0.00,meteohub,2012-10-09 10:51:00,
2012-10-09 06:54:00,38.3,27.1,30.38,WSW,248,0.0,2.0,64,0.00,,,0.00,meteohub,2012-10-09 10:54:00,
2012-10-09 06:55:00,38.3,27.1,30.38,WSW,248,0.0,2.0,64,0.00,,,0.00,meteohub,2012-10-09 10:55:00,
2012-10-09 06:57:00,38.3,27.1,30.38,WSW,248,0.0,2.0,64,0.00,,,0.00,meteohub,2012-10-09 10:57:00,
2012-10-09 06:59:00,38.1,27.0,30.38,WSW,248,0.0,2.0,64,0.00,,,0.00,meteohub,2012-10-09 10:59:00,
2012-10-09 07:00:00,38.1,27.0,30.38,WSW,248,0.0,2.0,64,0.00,,,0.00,meteohub,2012-10-09 11:00:00,
2012-10-09 07:02:00,37.9,26.8,30.38,WSW,248,0.0,2.0,64,0.00,,,0.00,meteohub,2012-10-09 11:02:00,
2012-10-09 07:04:00,37.9,26.8,30.38,SE,135,0.0,2.0,64,0.00,,,0.00,meteohub,2012-10-09 11:04:00,
2012-10-09 07:05:00,37.9,26.8,30.38,SE,135,0.0,0.0,64,0.00,,,0.00,meteohub,2012-10-09 11:05:00,
2012-10-09 07:07:00,37.9,27.1,30.38,East,90,0.0,0.0,65,0.00,,,0.00,meteohub,2012-10-09 11:07:00,
2012-10-09 07:09:00,37.8,27.1,30.38,SE,135,0.0,0.0,65,0.00,,,0.00,meteohub,2012-10-09 11:09:00,
2012-10-09 07:11:00,37.8,27.1,30.38,South,180,2.0,0.0,65,0.00,,,0.00,meteohub,2012-10-09 11:11:00,
2012-10-09 07:12:00,37.8,27.5,30.38,South,180,0.0,0.0,66,0.00,,,0.00,meteohub,2012-10-09 11:12:00,
2012-10-09 07:15:00,37.6,27.3,30.38,SE,135,0.0,2.0,66,0.00,,,0.00,meteohub,2012-10-09 11:15:00,
2012-10-09 07:17:00,37.6,27.3,30.38,East,90,0.0,2.0,66,0.00,,,0.00,meteohub,2012-10-09 11:17:00,
2012-10-09 07:18:00,37.4,27.1,30.38,East,90,0.0,2.0,66,0.00,,,0.00,meteohub,2012-10-09 11:18:00,
2012-10-09 07:19:00,37.4,27.1,30.38,East,90,0.0,2.0,66,0.00,,,0.00,meteohub,2012-10-09 11:19:00,
2012-10-09 07:21:00,37.2,27.0,30.37,East,90,0.0,2.0,66,0.00,,,0.00,meteohub,2012-10-09 11:21:00,
2012-10-09 07:23:00,37.2,27.0,30.38,East,90,0.0,2.0,66,0.00,,,0.00,meteohub,2012-10-09 11:23:00,
2012-10-09 07:25:00,37.0,26.8,30.38,East,90,0.0,2.0,66,0.00,,,0.00,meteohub,2012-10-09 11:25:00,
2012-10-09 07:26:00,37.0,26.8,30.38,NE,45,1.0,2.0,66,0.00,,,0.00,meteohub,2012-10-09 11:26:00,
2012-10-09 07:27:00,37.0,26.8,30.37,East,90,0.0,2.0,66,0.00,,,0.00,meteohub,2012-10-09 11:27:00,
2012-10-09 07:28:00,37.0,26.8,30.38,East,90,0.0,2.0,66,0.00,,,0.00,meteohub,2012-10-09 11:28:00,
2012-10-09 07:31:00,37.2,27.0,30.38,SE,135,0.0,1.0,66,0.00,,,0.00,meteohub,2012-10-09 11:31:00,
2012-10-09 07:32:00,37.2,27.0,30.38,WSW,248,0.0,1.0,66,0.00,,,0.00,meteohub,2012-10-09 11:32:00,
2012-10-09 07:33:00,37.2,27.0,30.38,WSW,248,0.0,1.0,66,0.00,,,0.00,meteohub,2012-10-09 11:33:00,
2012-10-09 07:36:00,37.4,26.8,30.38,SE,135,0.0,1.0,65,0.00,,,0.00,meteohub,2012-10-09 11:36:00,
2012-10-09 07:38:00,37.6,27.0,30.38,NE,45,1.0,1.0,65,0.00,,,0.00,meteohub,2012-10-09 11:38:00,
2012-10-09 07:39:00,37.6,27.0,30.38,NE,45,1.0,1.0,65,0.00,,,0.00,meteohub,2012-10-09 11:39:00,
2012-10-09 07:42:00,37.8,27.1,30.38,NE,45,0.0,1.0,65,0.00,,,0.00,meteohub,2012-10-09 11:42:00,
2012-10-09 07:44:00,37.9,27.1,30.38,NE,45,0.0,1.0,65,0.00,,,0.00,meteohub,2012-10-09 11:44:00,
2012-10-09 07:45:00,37.9,27.1,30.38,NE,45,0.0,1.0,65,0.00,,,0.00,meteohub,2012-10-09 11:45:00,
2012-10-09 07:47:00,38.1,27.3,30.38,NE,45,2.0,2.0,65,0.00,,,0.00,meteohub,2012-10-09 11:47:00,
2012-10-09 07:49:00,38.3,27.5,30.38,NE,45,0.0,1.0,65,0.00,,,0.00,meteohub,2012-10-09 11:49:00,
2012-10-09 07:50:00,38.3,27.5,30.38,NE,45,0.0,1.0,65,0.00,,,0.00,meteohub,2012-10-09 11:50:00,
2012-10-09 07:52:00,38.5,27.7,30.38,North,0,0.0,1.0,65,0.00,,,0.00,meteohub,2012-10-09 11:52:00,
2012-10-09 07:55:00,38.7,27.9,30.38,NE,45,0.0,2.0,65,0.00,,,0.00,meteohub,2012-10-09 11:55:00,
2012-10-09 07:59:00,38.8,28.0,30.38,NE,45,0.0,2.0,65,0.00,,,0.00,meteohub,2012-10-09 11:59:00,
2012-10-09 08:00:00,39.0,28.2,30.38,NE,45,0.0,2.0,65,0.00,,,0.00,meteohub,2012-10-09 12:00:00,
2012-10-09 08:01:00,39.0,28.2,30.38,NE,45,0.0,2.0,65,0.00,,,0.00,meteohub,2012-10-09 12:01:00,
2012-10-09 08:03:00,39.2,28.0,30.38,NE,45,0.0,2.0,64,0.00,,,0.00,meteohub,2012-10-09 12:03:00,
2012-10-09 08:05:00,39.4,28.2,30.38,NE,45,0.0,0.0,64,0.00,,,0.00,meteohub,2012-10-09 12:05:00,
2012-10-09 08:06:00,39.4,28.2,30.38,NE,45,0.0,0.0,64,0.00,,,0.00,meteohub,2012-10-09 12:06:00,
2012-10-09 08:08:00,39.6,28.4,30.37,East,90,0.0,0.0,64,0.00,,,0.00,meteohub,2012-10-09 12:08:00,
2012-10-09 08:11:00,39.6,28.4,30.38,East,90,0.0,0.0,64,0.00,,,0.00,meteohub,2012-10-09 12:11:00,
2012-10-09 08:13:00,39.7,28.6,30.38,NE,45,0.0,0.0,64,0.00,,,0.00,meteohub,2012-10-09 12:13:00,
2012-10-09 08:14:00,39.9,28.8,30.37,East,90,2.0,0.0,64,0.00,,,0.00,meteohub,2012-10-09 12:14:00,
2012-10-09 08:16:00,40.1,28.6,30.37,East,90,1.0,2.0,63,0.00,,,0.00,meteohub,2012-10-09 12:16:00,
2012-10-09 08:18:00,40.3,28.2,30.37,SSE,158,0.0,2.0,62,0.00,,,0.00,meteohub,2012-10-09 12:18:00,
2012-10-09 08:19:00,40.3,28.2,30.38,East,90,0.0,2.0,62,0.00,,,0.00,meteohub,2012-10-09 12:19:00,
2012-10-09 08:21:00,40.5,28.0,30.38,SE,135,0.0,2.0,61,0.00,,,0.00,meteohub,2012-10-09 12:21:00,
2012-10-09 08:23:00,40.6,27.5,30.38,SE,135,0.0,2.0,59,0.00,,,0.00,meteohub,2012-10-09 12:23:00,
2012-10-09 08:26:00,41.0,27.0,30.38,SE,135,3.0,3.0,57,0.00,,,0.00,meteohub,2012-10-09 12:26:00,
2012-10-09 08:29:00,41.2,25.9,30.38,NE,45,2.0,2.0,54,0.00,,,0.00,meteohub,2012-10-09 12:29:00,
2012-10-09 08:31:00,41.4,24.6,30.38,SE,135,3.0,3.0,51,0.00,,,0.00,meteohub,2012-10-09 12:31:00,
2012-10-09 08:32:00,41.4,24.1,30.38,SE,135,3.0,3.0,50,0.00,,,0.00,meteohub,2012-10-09 12:32:00,
2012-10-09 08:35:00,41.5,22.8,30.38,WSW,248,2.0,3.0,47,0.00,,,0.00,meteohub,2012-10-09 12:35:00,
2012-10-09 08:37:00,41.5,22.8,30.38,East,90,3.0,3.0,47,0.00,,,0.00,meteohub,2012-10-09 12:37:00,
2012-10-09 08:40:00,41.9,22.6,30.38,SE,135,0.0,4.0,46,0.00,,,0.00,meteohub,2012-10-09 12:40:00,
2012-10-09 08:43:00,41.9,22.1,30.37,East,90,2.0,4.0,45,0.00,,,0.00,meteohub,2012-10-09 12:43:00,
2012-10-09 08:46:00,42.1,21.7,30.38,East,90,2.0,4.0,44,0.00,,,0.00,meteohub,2012-10-09 12:46:00,
2012-10-09 08:48:00,42.3,20.8,30.37,SE,135,2.0,4.0,42,0.00,,,0.00,meteohub,2012-10-09 12:48:00,
2012-10-09 08:52:00,42.4,19.8,30.38,East,90,2.0,4.0,40,0.00,,,0.00,meteohub,2012-10-09 12:52:00,
2012-10-09 08:54:00,42.6,19.4,30.37,East,90,3.0,4.0,39,0.00,,,0.00,meteohub,2012-10-09 12:54:00,
2012-10-09 08:55:00,42.6,19.4,30.37,SE,135,2.0,4.0,39,0.00,,,0.00,meteohub,2012-10-09 12:55:00,
2012-10-09 08:58:00,43.0,19.0,30.37,SE,135,2.0,4.0,38,0.00,,,0.00,meteohub,2012-10-09 12:58:00,
2012-10-09 08:59:00,43.0,19.0,30.38,SE,135,2.0,4.0,38,0.00,,,0.00,meteohub,2012-10-09 12:59:00,
2012-10-09 09:00:00,43.0,19.0,30.38,SE,135,2.0,4.0,38,0.00,,,0.00,meteohub,2012-10-09 13:00:00,
2012-10-09 09:04:00,43.0,19.0,30.37,SE,135,2.0,4.0,38,0.00,,,0.00,meteohub,2012-10-09 13:04:00,
2012-10-09 09:05:00,43.0,19.0,30.37,SE,135,2.0,4.0,38,0.00,,,0.00,meteohub,2012-10-09 13:05:00,
2012-10-09 09:06:00,43.0,19.0,30.37,SE,135,2.0,4.0,38,0.00,,,0.00,meteohub,2012-10-09 13:06:00,
2012-10-09 09:10:00,43.5,17.6,30.38,East,90,4.0,4.0,35,0.00,,,0.00,meteohub,2012-10-09 13:10:00,
2012-10-09 09:11:00,43.5,17.6,30.38,East,90,4.0,4.0,35,0.00,,,0.00,meteohub,2012-10-09 13:11:00,
2012-10-09 09:12:00,43.7,17.8,30.37,North,0,4.0,4.0,35,0.00,,,0.00,meteohub,2012-10-09 13:12:00,
2012-10-09 09:15:00,43.9,16.0,30.37,East,90,2.0,4.0,32,0.00,,,0.00,meteohub,2012-10-09 13:15:00,
2012-10-09 09:16:00,43.9,16.0,30.37,SE,135,3.0,4.0,32,0.00,,,0.00,meteohub,2012-10-09 13:16:00,
2012-10-09 09:18:00,43.9,15.3,30.37,SE,135,2.0,4.0,31,0.00,,,0.00,meteohub,2012-10-09 13:18:00,
2012-10-09 09:21:00,44.1,16.2,30.37,South,180,2.0,4.0,32,0.00,,,0.00,meteohub,2012-10-09 13:21:00,
2012-10-09 09:22:00,44.1,14.5,30.37,East,90,3.0,4.0,30,0.00,,,0.00,meteohub,2012-10-09 13:22:00,
2012-10-09 09:23:00,44.1,16.2,30.37,East,90,2.0,4.0,32,0.00,,,0.00,meteohub,2012-10-09 13:23:00,
2012-10-09 09:27:00,44.2,14.7,30.37,East,90,4.0,4.0,30,0.00,,,0.00,meteohub,2012-10-09 13:27:00,
2012-10-09 09:28:00,44.2,14.0,30.37,South,180,4.0,4.0,29,0.00,,,0.00,meteohub,2012-10-09 13:28:00,
2012-10-09 09:32:00,44.2,12.4,30.37,South,180,7.0,7.0,27,0.00,,,0.00,meteohub,2012-10-09 13:32:00,
2012-10-09 09:33:00,44.2,12.4,30.37,SE,135,5.0,5.0,27,0.00,,,0.00,meteohub,2012-10-09 13:33:00,
2012-10-09 09:34:00,44.2,12.4,30.37,South,180,2.0,4.0,27,0.00,,,0.00,meteohub,2012-10-09 13:34:00,
2012-10-09 09:37:00,44.4,11.7,30.37,NE,45,2.0,7.0,26,0.00,,,0.00,meteohub,2012-10-09 13:37:00,
2012-10-09 09:39:00,44.4,12.6,30.37,South,180,3.0,7.0,27,0.00,,,0.00,meteohub,2012-10-09 13:39:00,
2012-10-09 09:40:00,44.4,12.6,30.37,NE,45,4.0,7.0,27,0.00,,,0.00,meteohub,2012-10-09 13:40:00,
2012-10-09 09:42:00,44.6,13.5,30.37,WSW,248,4.0,7.0,28,0.00,,,0.00,meteohub,2012-10-09 13:42:00,
2012-10-09 09:44:00,44.6,11.8,30.37,North,0,3.0,7.0,26,0.00,,,0.00,meteohub,2012-10-09 13:44:00,
2012-10-09 09:45:00,44.6,11.8,30.36,East,90,4.0,7.0,26,0.00,,,0.00,meteohub,2012-10-09 13:45:00,
2012-10-09 09:48:00,45.0,12.9,30.37,ESE,113,4.0,7.0,27,0.00,,,0.00,meteohub,2012-10-09 13:48:00,
2012-10-09 09:50:00,45.3,12.4,30.37,South,180,2.0,6.0,26,0.00,,,0.00,meteohub,2012-10-09 13:50:00,
2012-10-09 09:51:00,45.5,12.6,30.37,NW,315,2.0,6.0,26,0.00,,,0.00,meteohub,2012-10-09 13:51:00,
2012-10-09 09:53:00,46.2,12.4,30.37,SW,225,3.0,6.0,25,0.00,,,0.00,meteohub,2012-10-09 13:53:00,
2012-10-09 09:56:00,46.9,11.1,30.37,East,90,4.0,4.0,23,0.00,,,0.00,meteohub,2012-10-09 13:56:00,
2012-10-09 09:59:00,48.0,8.8,30.37,South,180,2.0,4.0,20,0.00,,,0.00,meteohub,2012-10-09 13:59:00,
2012-10-09 10:01:00,48.0,8.8,30.37,South,180,2.0,5.0,20,0.00,,,0.00,meteohub,2012-10-09 14:01:00,
2012-10-09 10:02:00,48.0,8.8,30.37,South,180,2.0,5.0,20,0.00,,,0.00,meteohub,2012-10-09 14:02:00,
2012-10-09 10:04:00,48.0,8.8,30.38,South,180,2.0,5.0,20,0.00,,,0.00,meteohub,2012-10-09 14:04:00,
2012-10-09 10:07:00,49.8,5.4,30.38,South,180,4.0,5.0,16,0.00,,,0.00,meteohub,2012-10-09 14:07:00,
2012-10-09 10:08:00,50.0,2.7,30.38,South,180,5.0,5.0,14,0.00,,,0.00,meteohub,2012-10-09 14:08:00,
2012-10-09 10:11:00,50.2,-2.4,30.38,WSW,248,8.0,8.0,11,0.00,,,0.00,meteohub,2012-10-09 14:11:00,
2012-10-09 10:12:00,50.2,-0.6,30.38,WSW,248,5.0,5.0,12,0.00,,,0.00,meteohub,2012-10-09 14:12:00,
2012-10-09 10:13:00,50.2,-0.6,30.38,South,180,3.0,5.0,12,0.00,,,0.00,meteohub,2012-10-09 14:13:00,
2012-10-09 10:17:00,50.7,-1.8,30.38,WSW,248,4.0,8.0,11,0.00,,,0.00,meteohub,2012-10-09 14:17:00,
2012-10-09 10:18:00,50.9,0.1,30.38,SE,135,3.0,8.0,12,0.00,,,0.00,meteohub,2012-10-09 14:18:00,
2012-10-09 10:22:00,50.9,0.1,30.37,East,90,4.0,8.0,12,0.00,,,0.00,meteohub,2012-10-09 14:22:00,
2012-10-09 10:23:00,50.9,-1.8,30.37,NE,45,4.0,8.0,11,0.00,,,0.00,meteohub,2012-10-09 14:23:00,
2012-10-09 10:28:00,51.1,0.1,30.38,East,90,2.0,8.0,12,0.00,,,0.00,meteohub,2012-10-09 14:28:00,
2012-10-09 10:29:00,51.4,2.1,30.37,SE,135,0.0,8.0,13,0.00,,,0.00,meteohub,2012-10-09 14:29:00,
2012-10-09 10:33:00,51.8,0.7,30.38,East,90,4.0,6.0,12,0.00,,,0.00,meteohub,2012-10-09 14:33:00,
2012-10-09 10:34:00,51.8,-1.1,30.37,North,0,3.0,6.0,11,0.00,,,0.00,meteohub,2012-10-09 14:34:00,
2012-10-09 10:35:00,52.0,0.9,30.38,East,90,2.0,6.0,12,0.00,,,0.00,meteohub,2012-10-09 14:35:00,
2012-10-09 10:39:00,52.5,-0.6,30.38,NE,45,3.0,6.0,11,0.00,,,0.00,meteohub,2012-10-09 14:39:00,
2012-10-09 10:40:00,52.7,-0.4,30.38,West,270,3.0,5.0,11,0.00,,,0.00,meteohub,2012-10-09 14:40:00,
2012-10-09 10:41:00,52.7,-0.4,30.38,South,180,4.0,5.0,11,0.00,,,0.00,meteohub,2012-10-09 14:41:00,
2012-10-09 10:44:00,52.3,-2.7,30.38,WSW,248,5.0,5.0,10,0.00,,,0.00,meteohub,2012-10-09 14:44:00,
2012-10-09 10:45:00,52.2,1.0,30.38,South,180,11.0,11.0,12,0.00,,,0.00,meteohub,2012-10-09 14:45:00,
2012-10-09 10:46:00,52.0,0.9,30.38,WSW,248,5.0,5.0,12,0.00,,,0.00,meteohub,2012-10-09 14:46:00,
2012-10-09 10:47:00,52.0,0.9,30.38,WSW,248,5.0,5.0,12,0.00,,,0.00,meteohub,2012-10-09 14:47:00,
2012-10-09 10:49:00,51.8,2.5,30.38,WSW,248,2.0,5.0,13,0.00,,,0.00,meteohub,2012-10-09 14:49:00,
2012-10-09 10:51:00,52.2,1.0,30.38,NE,45,0.0,11.0,12,0.00,,,0.00,meteohub,2012-10-09 14:51:00,
2012-10-09 10:52:00,52.2,1.0,30.38,NE,45,0.0,11.0,12,0.00,,,0.00,meteohub,2012-10-09 14:52:00,
2012-10-09 10:54:00,52.5,1.4,30.37,WSW,248,4.0,11.0,12,0.00,,,0.00,meteohub,2012-10-09 14:54:00,
2012-10-09 10:57:00,52.3,-0.6,30.37,NW,315,3.0,11.0,11,0.00,,,0.00,meteohub,2012-10-09 14:57:00,
2012-10-09 10:58:00,52.3,-0.6,30.37,South,180,3.0,11.0,11,0.00,,,0.00,meteohub,2012-10-09 14:58:00,
2012-10-09 11:01:00,52.7,3.2,30.37,South,180,4.0,11.0,13,0.00,,,0.00,meteohub,2012-10-09 15:01:00,
2012-10-09 11:02:00,52.7,3.2,30.37,South,180,4.0,11.0,13,0.00,,,0.00,meteohub,2012-10-09 15:02:00,
2012-10-09 11:03:00,52.7,3.2,30.37,South,180,4.0,11.0,13,0.00,,,0.00,meteohub,2012-10-09 15:03:00,
2012-10-09 11:06:00,52.7,3.2,30.37,South,180,4.0,6.0,13,0.00,,,0.00,meteohub,2012-10-09 15:06:00,
2012-10-09 11:08:00,54.7,-0.9,30.37,NE,45,0.0,6.0,10,0.00,,,0.00,meteohub,2012-10-09 15:08:00,
2012-10-09 11:09:00,55.0,-0.6,30.36,East,90,0.0,6.0,10,0.00,,,0.00,meteohub,2012-10-09 15:09:00,
2012-10-09 11:11:00,55.4,55.4,30.37,East,90,4.0,6.0,0,0.00,,,0.00,meteohub,2012-10-09 15:11:00,
2012-10-09 11:13:00,55.2,55.2,30.36,NE,45,2.0,6.0,0,0.00,,,0.00,meteohub,2012-10-09 15:13:00,
2012-10-09 11:14:00,55.2,55.2,30.36,North,0,2.0,6.0,0,0.00,,,0.00,meteohub,2012-10-09 15:14:00,
2012-10-09 11:16:00,54.9,54.9,30.36,South,180,3.0,5.0,0,0.00,,,0.00,meteohub,2012-10-09 15:16:00,
2012-10-09 11:18:00,54.5,54.5,30.37,East,90,4.0,5.0,0,0.00,,,0.00,meteohub,2012-10-09 15:18:00,
2012-10-09 11:19:00,54.5,54.5,30.37,WSW,248,3.0,5.0,0,0.00,,,0.00,meteohub,2012-10-09 15:19:00,
2012-10-09 11:20:00,54.7,54.7,30.37,SE,135,4.0,5.0,0,0.00,,,0.00,meteohub,2012-10-09 15:20:00,
2012-10-09 11:22:00,54.9,54.9,30.37,SE,135,2.0,5.0,0,0.00,,,0.00,meteohub,2012-10-09 15:22:00,
2012-10-09 11:24:00,55.0,55.0,30.36,WSW,248,2.0,5.0,0,0.00,,,0.00,meteohub,2012-10-09 15:24:00,
2012-10-09 11:26:00,54.7,54.7,30.37,East,90,6.0,6.0,0,0.00,,,0.00,meteohub,2012-10-09 15:26:00,
2012-10-09 11:29:00,54.3,54.3,30.37,WSW,248,2.0,5.0,0,0.00,,,0.00,meteohub,2012-10-09 15:29:00,
2012-10-09 11:31:00,54.5,54.5,30.36,South,180,2.0,6.0,0,0.00,,,0.00,meteohub,2012-10-09 15:31:00,
2012-10-09 11:32:00,54.7,54.7,30.36,NW,315,4.0,6.0,0,0.00,,,0.00,meteohub,2012-10-09 15:32:00,
2012-10-09 11:34:00,54.9,54.9,30.36,South,180,2.0,6.0,0,0.00,,,0.00,meteohub,2012-10-09 15:34:00,
2012-10-09 11:36:00,55.6,55.6,30.36,East,90,2.0,6.0,0,0.00,,,0.00,meteohub,2012-10-09 15:36:00,
2012-10-09 11:37:00,55.6,55.6,30.36,WSW,248,3.0,6.0,0,0.00,,,0.00,meteohub,2012-10-09 15:37:00,
2012-10-09 11:39:00,56.1,56.1,30.36,West,270,4.0,6.0,0,0.00,,,0.00,meteohub,2012-10-09 15:39:00,
2012-10-09 11:41:00,55.9,55.9,30.36,West,270,2.0,6.0,0,0.00,,,0.00,meteohub,2012-10-09 15:41:00,
2012-10-09 11:42:00,55.8,55.8,30.36,West,270,6.0,6.0,0,0.00,,,0.00,meteohub,2012-10-09 15:42:00,
2012-10-09 11:45:00,55.4,55.4,30.36,West,270,5.0,6.0,0,0.00,,,0.00,meteohub,2012-10-09 15:45:00,
2012-10-09 11:46:00,55.2,55.2,30.36,West,270,4.0,5.0,0,0.00,,,0.00,meteohub,2012-10-09 15:46:00,
2012-10-09 11:48:00,55.0,55.0,30.36,NW,315,3.0,5.0,0,0.00,,,0.00,meteohub,2012-10-09 15:48:00,
2012-10-09 11:50:00,55.4,55.4,30.36,WSW,248,5.0,6.0,0,0.00,,,0.00,meteohub,2012-10-09 15:50:00,
2012-10-09 11:52:00,55.2,55.2,30.36,WSW,248,4.0,6.0,0,0.00,,,0.00,meteohub,2012-10-09 15:52:00,
2012-10-09 11:53:00,55.0,55.0,30.36,WSW,248,2.0,6.0,0,0.00,,,0.00,meteohub,2012-10-09 15:53:00,
2012-10-09 11:54:00,55.0,55.0,30.36,WSW,248,2.0,6.0,0,0.00,,,0.00,meteohub,2012-10-09 15:54:00,
2012-10-09 11:55:00,55.2,55.2,30.35,North,0,0.0,6.0,0,0.00,,,0.00,meteohub,2012-10-09 15:55:00,
2012-10-09 11:57:00,55.8,55.8,30.35,NE,45,0.0,6.0,0,0.00,,,0.00,meteohub,2012-10-09 15:57:00,
2012-10-09 11:59:00,56.3,56.3,30.35,WSW,248,4.0,6.0,0,0.00,,,0.00,meteohub,2012-10-09 15:59:00,
2012-10-09 12:00:00,56.5,56.5,30.35,SE,135,3.0,5.0,0,0.00,,,0.00,meteohub,2012-10-09 16:00:00,
2012-10-09 12:03:00,56.5,56.5,30.35,SE,135,3.0,5.0,0,0.00,,,0.00,meteohub,2012-10-09 16:03:00,
2012-10-09 12:04:00,56.5,56.5,30.35,SE,135,3.0,5.0,0,0.00,,,0.00,meteohub,2012-10-09 16:04:00,
2012-10-09 12:05:00,56.5,56.5,30.35,SE,135,3.0,5.0,0,0.00,,,0.00,meteohub,2012-10-09 16:05:00,
2012-10-09 12:06:00,56.5,56.5,30.35,SE,135,3.0,5.0,0,0.00,,,0.00,meteohub,2012-10-09 16:06:00,
2012-10-09 12:08:00,55.6,55.6,30.35,West,270,2.0,5.0,0,0.00,,,0.00,meteohub,2012-10-09 16:08:00,
2012-10-09 12:10:00,55.8,55.8,30.35,South,180,1.0,5.0,0,0.00,,,0.00,meteohub,2012-10-09 16:10:00,
2012-10-09 12:11:00,55.8,55.8,30.35,NW,315,4.0,4.0,0,0.00,,,0.00,meteohub,2012-10-09 16:11:00,
2012-10-09 12:14:00,55.8,55.8,30.35,South,180,2.0,4.0,0,0.00,,,0.00,meteohub,2012-10-09 16:14:00,
2012-10-09 12:15:00,55.8,55.8,30.35,WSW,248,2.0,4.0,0,0.00,,,0.00,meteohub,2012-10-09 16:15:00,
2012-10-09 12:16:00,55.9,55.9,30.35,West,270,3.0,5.0,0,0.00,,,0.00,meteohub,2012-10-09 16:16:00,
2012-10-09 12:19:00,56.5,56.5,30.35,West,270,0.0,5.0,0,0.00,,,0.00,meteohub,2012-10-09 16:19:00,
2012-10-09 12:20:00,56.7,56.7,30.35,North,0,5.0,6.0,0,0.00,,,0.00,meteohub,2012-10-09 16:20:00,
2012-10-09 12:21:00,56.7,56.7,30.35,North,0,5.0,6.0,0,0.00,,,0.00,meteohub,2012-10-09 16:21:00,
2012-10-09 12:22:00,56.8,56.8,30.34,South,180,1.0,6.0,0,0.00,,,0.00,meteohub,2012-10-09 16:22:00,
2012-10-09 12:24:00,57.0,57.0,30.34,NE,45,4.0,6.0,0,0.00,,,0.00,meteohub,2012-10-09 16:24:00,
2012-10-09 12:25:00,57.0,57.0,30.34,East,90,2.0,6.0,0,0.00,,,0.00,meteohub,2012-10-09 16:25:00,
2012-10-09 12:26:00,57.2,57.2,30.35,NW,315,2.0,6.0,0,0.00,,,0.00,meteohub,2012-10-09 16:26:00,
2012-10-09 12:27:00,57.2,57.2,30.34,WSW,248,4.0,6.0,0,0.00,,,0.00,meteohub,2012-10-09 16:27:00,
2012-10-09 12:30:00,57.7,57.7,30.35,SE,135,3.0,5.0,0,0.00,,,0.00,meteohub,2012-10-09 16:30:00,
2012-10-09 12:31:00,57.9,57.9,30.34,North,0,2.0,5.0,0,0.00,,,0.00,meteohub,2012-10-09 16:31:00,
2012-10-09 12:32:00,57.9,57.9,30.34,East,90,2.0,5.0,0,0.00,,,0.00,meteohub,2012-10-09 16:32:00,
2012-10-09 12:33:00,58.1,58.1,30.34,WSW,248,3.0,5.0,0,0.00,,,0.00,meteohub,2012-10-09 16:33:00,
2012-10-09 12:36:00,58.5,58.5,30.35,NE,45,0.0,5.0,0,0.00,,,0.00,meteohub,2012-10-09 16:36:00,
2012-10-09 12:38:00,58.8,58.8,30.35,SE,135,3.0,5.0,0,0.00,,,0.00,meteohub,2012-10-09 16:38:00,
2012-10-09 12:39:00,58.8,58.8,30.35,WSW,248,4.0,5.0,0,0.00,,,0.00,meteohub,2012-10-09 16:39:00,
2012-10-09 12:41:00,58.1,58.1,30.34,WSW,248,4.0,4.0,0,0.00,,,0.00,meteohub,2012-10-09 16:41:00,
2012-10-09 12:42:00,57.9,57.9,30.34,West,270,5.0,5.0,0,0.00,,,0.00,meteohub,2012-10-09 16:42:00,
2012-10-09 12:44:00,57.6,57.6,30.34,East,90,4.0,4.0,0,0.00,,,0.00,meteohub,2012-10-09 16:44:00,
2012-10-09 12:47:00,57.6,57.6,30.34,WSW,248,4.0,6.0,0,0.00,,,0.00,meteohub,2012-10-09 16:47:00,
2012-10-09 12:48:00,57.6,57.6,30.34,West,270,4.0,6.0,0,0.00,,,0.00,meteohub,2012-10-09 16:48:00,
2012-10-09 12:49:00,57.6,57.6,30.33,WNW,293,4.0,6.0,0,0.00,,,0.00,meteohub,2012-10-09 16:49:00,
2012-10-09 12:53:00,57.9,57.9,30.33,SE,135,2.0,6.0,0,0.00,,,0.00,meteohub,2012-10-09 16:53:00,
2012-10-09 12:55:00,58.1,58.1,30.33,SE,135,3.0,6.0,0,0.00,,,0.00,meteohub,2012-10-09 16:55:00,
2012-10-09 12:56:00,58.3,58.3,30.33,South,180,2.0,5.0,0,0.00,,,0.00,meteohub,2012-10-09 16:56:00,
2012-10-09 12:58:00,58.6,58.6,30.32,East,90,2.0,5.0,0,0.00,,,0.00,meteohub,2012-10-09 16:58:00,
2012-10-09 13:00:00,58.8,58.8,30.32,SE,135,1.0,4.0,0,0.00,,,0.00,meteohub,2012-10-09 17:00:00,
2012-10-09 13:02:00,58.8,58.8,30.32,SE,135,1.0,4.0,0,0.00,,,0.00,meteohub,2012-10-09 17:02:00,
2012-10-09 13:03:00,58.8,58.8,30.32,SE,135,1.0,4.0,0,0.00,,,0.00,meteohub,2012-10-09 17:03:00,
2012-10-09 13:04:00,58.8,58.8,30.32,SE,135,1.0,4.0,0,0.00,,,0.00,meteohub,2012-10-09 17:04:00,
2012-10-09 13:05:00,58.8,58.8,30.32,SE,135,1.0,4.0,0,0.00,,,0.00,meteohub,2012-10-09 17:05:00,
2012-10-09 13:08:00,59.7,59.7,30.32,WSW,248,3.0,4.0,0,0.00,,,0.00,meteohub,2012-10-09 17:08:00,
2012-10-09 13:09:00,59.7,59.7,30.32,WSW,248,6.0,6.0,0,0.00,,,0.00,meteohub,2012-10-09 17:09:00,
2012-10-09 13:11:00,59.4,59.4,30.32,East,90,4.0,4.0,0,0.00,,,0.00,meteohub,2012-10-09 17:11:00,
2012-10-09 13:14:00,59.5,59.5,30.32,WSW,248,5.0,5.0,0,0.00,,,0.00,meteohub,2012-10-09 17:14:00,
2012-10-09 13:16:00,59.5,59.5,30.32,North,0,2.0,6.0,0,0.00,,,0.00,meteohub,2012-10-09 17:16:00,
2012-10-09 13:17:00,59.9,59.9,30.32,NW,315,7.0,7.0,0,0.00,,,0.00,meteohub,2012-10-09 17:17:00,
2012-10-09 13:19:00,59.5,59.5,30.32,West,270,3.0,6.0,0,0.00,,,0.00,meteohub,2012-10-09 17:19:00,
2012-10-09 13:21:00,59.5,59.5,30.32,North,0,6.0,8.0,0,0.00,,,0.00,meteohub,2012-10-09 17:21:00,
2012-10-09 13:22:00,59.5,59.5,30.32,NW,315,5.0,8.0,0,0.00,,,0.00,meteohub,2012-10-09 17:22:00,
2012-10-09 13:24:00,59.7,59.7,30.32,WSW,248,6.0,8.0,0,0.00,,,0.00,meteohub,2012-10-09 17:24:00,
2012-10-09 13:25:00,59.7,59.7,30.32,WSW,248,6.0,8.0,0,0.00,,,0.00,meteohub,2012-10-09 17:25:00,
2012-10-09 13:26:00,59.7,59.7,30.31,SE,135,2.0,8.0,0,0.00,,,0.00,meteohub,2012-10-09 17:26:00,
2012-10-09 13:27:00,59.9,59.9,30.32,WSW,248,3.0,8.0,0,0.00,,,0.00,meteohub,2012-10-09 17:27:00,
2012-10-09 13:29:00,59.7,59.7,30.31,South,180,4.0,8.0,0,0.00,,,0.00,meteohub,2012-10-09 17:29:00,
2012-10-09 13:30:00,59.7,59.7,30.31,WSW,248,4.0,8.0,0,0.00,,,0.00,meteohub,2012-10-09 17:30:00,
2012-10-09 13:32:00,59.9,59.9,30.31,South,180,2.0,8.0,0,0.00,,,0.00,meteohub,2012-10-09 17:32:00,
2012-10-09 13:33:00,60.1,60.1,30.31,West,270,3.0,8.0,0,0.00,,,0.00,meteohub,2012-10-09 17:33:00,
2012-10-09 13:34:00,60.8,60.8,30.31,WSW,248,2.0,8.0,0,0.00,,,0.00,meteohub,2012-10-09 17:34:00,
2012-10-09 13:35:00,61.0,61.0,30.31,WSW,248,4.0,6.0,0,0.00,,,0.00,meteohub,2012-10-09 17:35:00,
2012-10-09 13:37:00,61.2,61.2,30.31,NW,315,4.0,6.0,0,0.00,,,0.00,meteohub,2012-10-09 17:37:00,
2012-10-09 13:38:00,61.0,61.0,30.30,South,180,4.0,6.0,0,0.00,,,0.00,meteohub,2012-10-09 17:38:00,
2012-10-09 13:40:00,61.0,61.0,30.30,South,180,5.0,5.0,0,0.00,,,0.00,meteohub,2012-10-09 17:40:00,
2012-10-09 13:41:00,60.8,60.8,30.31,WSW,248,5.0,5.0,0,0.00,,,0.00,meteohub,2012-10-09 17:41:00,
2012-10-09 13:43:00,60.8,60.8,30.30,NW,315,3.0,5.0,0,0.00,,,0.00,meteohub,2012-10-09 17:43:00,
2012-10-09 13:44:00,61.0,61.0,30.30,WSW,248,3.0,5.0,0,0.00,,,0.00,meteohub,2012-10-09 17:44:00,
2012-10-09 13:45:00,61.2,61.2,30.30,South,180,6.0,6.0,0,0.00,,,0.00,meteohub,2012-10-09 17:45:00,
2012-10-09 13:47:00,61.3,61.3,30.30,South,180,2.0,5.0,0,0.00,,,0.00,meteohub,2012-10-09 17:47:00,
2012-10-09 13:48:00,61.3,61.3,30.30,West,270,4.0,5.0,0,0.00,,,0.00,meteohub,2012-10-09 17:48:00,
2012-10-09 13:50:00,61.0,61.0,30.30,WSW,248,4.0,6.0,0,0.00,,,0.00,meteohub,2012-10-09 17:50:00,
2012-10-09 13:51:00,60.8,60.8,30.30,ENE,68,5.0,6.0,0,0.00,,,0.00,meteohub,2012-10-09 17:51:00,
2012-10-09 13:52:00,60.8,60.8,30.30,West,270,2.0,6.0,0,0.00,,,0.00,meteohub,2012-10-09 17:52:00,
2012-10-09 13:53:00,61.0,61.0,30.30,WSW,248,2.0,6.0,0,0.00,,,0.00,meteohub,2012-10-09 17:53:00,
2012-10-09 13:55:00,61.5,61.5,30.30,WSW,248,4.0,6.0,0,0.00,,,0.00,meteohub,2012-10-09 17:55:00,
2012-10-09 13:56:00,61.5,61.5,30.30,South,180,6.0,6.0,0,0.00,,,0.00,meteohub,2012-10-09 17:56:00,
2012-10-09 13:57:00,61.5,61.5,30.29,WSW,248,6.0,6.0,0,0.00,,,0.00,meteohub,2012-10-09 17:57:00,
2012-10-09 13:59:00,61.5,61.5,30.30,South,180,5.0,6.0,0,0.00,,,0.00,meteohub,2012-10-09 17:59:00,
2012-10-09 14:00:00,61.5,61.5,30.30,West,270,3.0,6.0,0,0.00,,,0.00,meteohub,2012-10-09 18:00:00,
2012-10-09 14:01:00,61.5,61.5,30.29,West,270,3.0,6.0,0,0.00,,,0.00,meteohub,2012-10-09 18:01:00,
2012-10-09 14:02:00,61.5,61.5,30.29,West,270,3.0,6.0,0,0.00,,,0.00,meteohub,2012-10-09 18:02:00,
2012-10-09 14:04:00,61.5,61.5,30.29,West,270,3.0,6.0,0,0.00,,,0.00,meteohub,2012-10-09 18:04:00,
2012-10-09 14:05:00,61.5,61.5,30.29,West,270,3.0,6.0,0,0.00,,,0.00,meteohub,2012-10-09 18:05:00,
2012-10-09 14:07:00,61.5,61.5,30.29,West,270,3.0,6.0,0,0.00,,,0.00,meteohub,2012-10-09 18:07:00,
2012-10-09 14:08:00,60.4,60.4,30.29,WSW,248,5.0,6.0,0,0.00,,,0.00,meteohub,2012-10-09 18:08:00,
2012-10-09 14:09:00,60.6,60.6,30.29,South,180,5.0,6.0,0,0.00,,,0.00,meteohub,2012-10-09 18:09:00,
2012-10-09 14:10:00,60.6,60.6,30.29,West,270,2.0,6.0,0,0.00,,,0.00,meteohub,2012-10-09 18:10:00,
2012-10-09 14:12:00,60.8,60.8,30.29,West,270,4.0,6.0,0,0.00,,,0.00,meteohub,2012-10-09 18:12:00,
2012-10-09 14:13:00,61.0,61.0,30.29,NW,315,3.0,6.0,0,0.00,,,0.00,meteohub,2012-10-09 18:13:00,
2012-10-09 14:14:00,61.0,61.0,30.29,NW,315,4.0,6.0,0,0.00,,,0.00,meteohub,2012-10-09 18:14:00,
2012-10-09 14:16:00,60.8,60.8,30.29,NW,315,4.0,5.0,0,0.00,,,0.00,meteohub,2012-10-09 18:16:00,
2012-10-09 14:17:00,61.2,61.2,30.29,South,180,2.0,5.0,0,0.00,,,0.00,meteohub,2012-10-09 18:17:00,
2012-10-09 14:20:00,61.9,61.9,30.29,SE,135,4.0,5.0,0,0.00,,,0.00,meteohub,2012-10-09 18:20:00,
2012-10-09 14:22:00,62.4,62.4,30.29,WSW,248,3.0,5.0,0,0.00,,,0.00,meteohub,2012-10-09 18:22:00,
2012-10-09 14:25:00,63.3,63.3,30.29,South,180,4.0,5.0,0,0.00,,,0.00,meteohub,2012-10-09 18:25:00,
2012-10-09 14:28:00,63.0,63.0,30.28,NE,45,4.0,5.0,0,0.00,,,0.00,meteohub,2012-10-09 18:28:00,
2012-10-09 14:30:00,63.7,63.7,30.29,South,180,3.0,10.0,0,0.00,,,0.00,meteohub,2012-10-09 18:30:00,
2012-10-09 14:31:00,63.9,63.9,30.28,WSW,248,7.0,10.0,0,0.00,,,0.00,meteohub,2012-10-09 18:31:00,
2012-10-09 14:33:00,64.0,64.0,30.28,WSW,248,7.0,10.0,0,0.00,,,0.00,meteohub,2012-10-09 18:33:00,
2012-10-09 14:34:00,64.0,64.0,30.29,South,180,4.0,10.0,0,0.00,,,0.00,meteohub,2012-10-09 18:34:00,
2012-10-09 14:36:00,63.9,63.9,30.28,West,270,4.0,10.0,0,0.00,,,0.00,meteohub,2012-10-09 18:36:00,
2012-10-09 14:37:00,63.5,63.5,30.28,SE,135,3.0,10.0,0,0.00,,,0.00,meteohub,2012-10-09 18:37:00,
2012-10-09 14:38:00,63.7,63.7,30.28,WSW,248,2.0,10.0,0,0.00,,,0.00,meteohub,2012-10-09 18:38:00,
2012-10-09 14:39:00,63.7,63.7,30.28,WSW,248,3.0,10.0,0,0.00,,,0.00,meteohub,2012-10-09 18:39:00,
2012-10-09 14:41:00,64.2,64.2,30.28,WSW,248,2.0,13.0,0,0.00,,,0.00,meteohub,2012-10-09 18:41:00,
2012-10-09 14:43:00,64.9,64.9,30.28,SE,135,4.0,13.0,0,0.00,,,0.00,meteohub,2012-10-09 18:43:00,
2012-10-09 14:45:00,64.9,64.9,30.28,East,90,3.0,13.0,0,0.00,,,0.00,meteohub,2012-10-09 18:45:00,
2012-10-09 14:46:00,64.9,64.9,30.28,NE,45,4.0,13.0,0,0.00,,,0.00,meteohub,2012-10-09 18:46:00,
2012-10-09 14:47:00,64.4,64.4,30.28,East,90,4.0,13.0,0,0.00,,,0.00,meteohub,2012-10-09 18:47:00,
2012-10-09 14:49:00,64.2,64.2,30.28,East,90,3.0,13.0,0,0.00,,,0.00,meteohub,2012-10-09 18:49:00,
2012-10-09 14:50:00,64.0,64.0,30.28,WSW,248,2.0,8.0,0,0.00,,,0.00,meteohub,2012-10-09 18:50:00,
2012-10-09 14:51:00,64.2,64.2,30.28,SE,135,4.0,8.0,0,0.00,,,0.00,meteohub,2012-10-09 18:51:00,
2012-10-09 14:53:00,64.4,64.4,30.28,NE,45,2.0,8.0,0,0.00,,,0.00,meteohub,2012-10-09 18:53:00,
2012-10-09 14:54:00,64.2,64.2,30.28,South,180,4.0,8.0,0,0.00,,,0.00,meteohub,2012-10-09 18:54:00,
2012-10-09 14:55:00,63.7,63.7,30.28,SE,135,4.0,7.0,0,0.00,,,0.00,meteohub,2012-10-09 18:55:00,
2012-10-09 14:57:00,63.3,63.3,30.28,NE,45,2.0,7.0,0,0.00,,,0.00,meteohub,2012-10-09 18:57:00,
2012-10-09 14:58:00,63.0,63.0,30.28,East,90,2.0,7.0,0,0.00,,,0.00,meteohub,2012-10-09 18:58:00,
2012-10-09 15:00:00,62.2,62.2,30.28,South,180,6.0,7.0,0,0.00,,,0.00,meteohub,2012-10-09 19:00:00,
2012-10-09 15:01:00,62.2,62.2,30.28,South,180,6.0,7.0,0,0.00,,,0.00,meteohub,2012-10-09 19:01:00,
2012-10-09 15:02:00,62.2,62.2,30.28,South,180,6.0,7.0,0,0.00,,,0.00,meteohub,2012-10-09 19:02:00,
2012-10-09 15:03:00,62.2,62.2,30.28,South,180,6.0,7.0,0,0.00,,,0.00,meteohub,2012-10-09 19:03:00,
2012-10-09 15:06:00,62.2,62.2,30.28,South,180,6.0,7.0,0,0.00,,,0.00,meteohub,2012-10-09 19:06:00,
2012-10-09 15:07:00,62.2,62.2,30.28,South,180,6.0,7.0,0,0.00,,,0.00,meteohub,2012-10-09 19:07:00,
2012-10-09 15:08:00,63.3,63.3,30.28,South,180,8.0,8.0,0,0.00,,,0.00,meteohub,2012-10-09 19:08:00,
2012-10-09 15:09:00,63.3,63.3,30.27,SE,135,8.0,8.0,0,0.00,,,0.00,meteohub,2012-10-09 19:09:00,
2012-10-09 15:12:00,63.9,63.9,30.27,South,180,5.0,8.0,0,0.00,,,0.00,meteohub,2012-10-09 19:12:00,
2012-10-09 15:13:00,63.9,63.9,30.27,North,0,6.0,8.0,0,0.00,,,0.00,meteohub,2012-10-09 19:13:00,
2012-10-09 15:17:00,64.4,64.4,30.27,WSW,248,2.0,8.0,0,0.00,,,0.00,meteohub,2012-10-09 19:17:00,
2012-10-09 15:19:00,64.4,64.4,30.27,WSW,248,4.0,8.0,0,0.00,,,0.00,meteohub,2012-10-09 19:19:00,
2012-10-09 15:20:00,64.4,64.4,30.27,WSW,248,4.0,8.0,0,0.00,,,0.00,meteohub,2012-10-09 19:20:00,
2012-10-09 15:23:00,64.4,64.4,30.27,WSW,248,9.0,9.0,0,0.00,,,0.00,meteohub,2012-10-09 19:23:00,
2012-10-09 15:24:00,64.4,64.4,30.27,WSW,248,9.0,9.0,0,0.00,,,0.00,meteohub,2012-10-09 19:24:00,
2012-10-09 15:25:00,64.6,64.6,30.27,SE,135,6.0,11.0,0,0.00,,,0.00,meteohub,2012-10-09 19:25:00,
2012-10-09 15:27:00,64.6,64.6,30.27,SE,135,2.0,11.0,0,0.00,,,0.00,meteohub,2012-10-09 19:27:00,
2012-10-09 15:29:00,64.4,64.4,30.27,NE,45,4.0,11.0,0,0.00,,,0.00,meteohub,2012-10-09 19:29:00,
2012-10-09 15:30:00,64.2,64.2,30.27,NE,45,2.0,11.0,0,0.00,,,0.00,meteohub,2012-10-09 19:30:00,
2012-10-09 15:32:00,64.2,64.2,30.27,NE,45,2.0,11.0,0,0.00,,,0.00,meteohub,2012-10-09 19:32:00,
2012-10-09 15:34:00,64.4,64.4,30.27,West,270,2.0,11.0,0,0.00,,,0.00,meteohub,2012-10-09 19:34:00,
2012-10-09 15:35:00,65.1,65.1,30.26,NW,315,1.0,11.0,0,0.00,,,0.00,meteohub,2012-10-09 19:35:00,
2012-10-09 15:37:00,65.7,65.7,30.27,East,90,4.0,11.0,0,0.00,,,0.00,meteohub,2012-10-09 19:37:00,
2012-10-09 15:39:00,65.3,65.3,30.26,SE,135,10.0,11.0,0,0.00,,,0.00,meteohub,2012-10-09 19:39:00,
2012-10-09 15:40:00,65.3,65.3,30.26,SE,135,10.0,11.0,0,0.00,,,0.00,meteohub,2012-10-09 19:40:00,
2012-10-09 15:41:00,65.1,65.1,30.27,West,270,2.0,6.0,0,0.00,,,0.00,meteohub,2012-10-09 19:41:00,
2012-10-09 15:42:00,65.1,65.1,30.27,West,270,4.0,6.0,0,0.00,,,0.00,meteohub,2012-10-09 19:42:00,
2012-10-09 15:45:00,64.8,64.8,30.27,SE,135,4.0,11.0,0,0.00,,,0.00,meteohub,2012-10-09 19:45:00,
2012-10-09 15:46:00,64.8,64.8,30.26,SE,135,4.0,11.0,0,0.00,,,0.00,meteohub,2012-10-09 19:46:00,
2012-10-09 15:48:00,64.6,64.6,30.26,East,90,2.0,11.0,0,0.00,,,0.00,meteohub,2012-10-09 19:48:00,
2012-10-09 15:51:00,64.8,64.8,30.27,West,270,5.0,11.0,0,0.00,,,0.00,meteohub,2012-10-09 19:51:00,
2012-10-09 15:54:00,64.2,64.2,30.27,South,180,1.0,11.0,0,0.00,,,0.00,meteohub,2012-10-09 19:54:00,
2012-10-09 15:56:00,64.9,64.9,30.26,WSW,248,3.0,11.0,0,0.00,,,0.00,meteohub,2012-10-09 19:56:00,
2012-10-09 15:57:00,64.9,64.9,30.26,WSW,248,3.0,11.0,0,0.00,,,0.00,meteohub,2012-10-09 19:57:00,
2012-10-09 16:00:00,65.8,65.8,30.26,WSW,248,1.0,5.0,0,0.00,,,0.00,meteohub,2012-10-09 20:00:00,
2012-10-09 16:01:00,65.8,65.8,30.26,WSW,248,1.0,5.0,0,0.00,,,0.00,meteohub,2012-10-09 20:01:00,
2012-10-09 16:02:00,65.8,65.8,30.27,WSW,248,1.0,5.0,0,0.00,,,0.00,meteohub,2012-10-09 20:02:00,
2012-10-09 16:05:00,65.8,65.8,30.26,WSW,248,1.0,5.0,0,0.00,,,0.00,meteohub,2012-10-09 20:05:00,
2012-10-09 16:07:00,65.8,65.8,30.26,WSW,248,1.0,5.0,0,0.00,,,0.00,meteohub,2012-10-09 20:07:00,
2012-10-09 16:08:00,64.6,64.6,30.26,West,270,3.0,5.0,0,0.00,,,0.00,meteohub,2012-10-09 20:08:00,
2012-10-09 16:11:00,64.8,64.8,30.26,WSW,248,4.0,4.0,0,0.00,,,0.00,meteohub,2012-10-09 20:11:00,
2012-10-09 16:12:00,64.8,64.8,30.26,West,270,4.0,4.0,0,0.00,,,0.00,meteohub,2012-10-09 20:12:00,
2012-10-09 16:13:00,64.6,64.6,30.26,WSW,248,3.0,3.0,0,0.00,,,0.00,meteohub,2012-10-09 20:13:00,
2012-10-09 16:17:00,64.4,64.4,30.26,South,180,3.0,4.0,0,0.00,,,0.00,meteohub,2012-10-09 20:17:00,
2012-10-09 16:18:00,64.4,64.4,30.26,South,180,4.0,4.0,0,0.00,,,0.00,meteohub,2012-10-09 20:18:00,
2012-10-09 16:19:00,64.4,64.4,30.26,SE,135,2.0,4.0,0,0.00,,,0.00,meteohub,2012-10-09 20:19:00,
2012-10-09 16:23:00,65.1,65.1,30.26,West,270,0.0,5.0,0,0.00,,,0.00,meteohub,2012-10-09 20:23:00,
2012-10-09 16:24:00,65.1,65.1,30.26,East,90,5.0,5.0,0,0.00,,,0.00,meteohub,2012-10-09 20:24:00,
2012-10-09 16:25:00,64.8,64.8,30.26,ENE,68,4.0,5.0,0,0.00,,,0.00,meteohub,2012-10-09 20:25:00,
2012-10-09 16:28:00,63.9,63.9,30.26,SE,135,2.0,5.0,0,0.00,,,0.00,meteohub,2012-10-09 20:28:00,
2012-10-09 16:29:00,64.0,64.0,30.26,East,90,1.0,5.0,0,0.00,,,0.00,meteohub,2012-10-09 20:29:00,
2012-10-09 16:30:00,64.0,64.0,30.26,East,90,0.0,6.0,0,0.00,,,0.00,meteohub,2012-10-09 20:30:00,
2012-10-09 16:31:00,64.4,64.4,30.26,NE,45,0.0,6.0,0,0.00,,,0.00,meteohub,2012-10-09 20:31:00,
2012-10-09 16:33:00,64.9,64.9,30.26,South,180,1.0,6.0,0,0.00,,,0.00,meteohub,2012-10-09 20:33:00,
2012-10-09 16:35:00,65.5,65.5,30.26,SSW,203,1.0,6.0,0,0.00,,,0.00,meteohub,2012-10-09 20:35:00,
2012-10-09 16:37:00,66.0,66.0,30.26,South,180,2.0,6.0,0,0.00,,,0.00,meteohub,2012-10-09 20:37:00,
2012-10-09 16:39:00,65.8,65.8,30.26,SE,135,2.0,6.0,0,0.00,,,0.00,meteohub,2012-10-09 20:39:00,
2012-10-09 16:40:00,65.5,65.5,30.26,East,90,2.0,6.0,0,0.00,,,0.00,meteohub,2012-10-09 20:40:00,
2012-10-09 16:42:00,65.3,65.3,30.26,SE,135,3.0,6.0,0,0.00,,,0.00,meteohub,2012-10-09 20:42:00,
2012-10-09 16:44:00,65.1,65.1,30.26,East,90,2.0,6.0,0,0.00,,,0.00,meteohub,2012-10-09 20:44:00,
2012-10-09 16:45:00,65.1,65.1,30.26,East,90,2.0,3.0,0,0.00,,,0.00,meteohub,2012-10-09 20:45:00,
2012-10-09 16:46:00,65.1,65.1,30.26,East,90,2.0,3.0,0,0.00,,,0.00,meteohub,2012-10-09 20:46:00,
2012-10-09 16:47:00,64.9,64.9,30.26,East,90,2.0,3.0,0,0.00,,,0.00,meteohub,2012-10-09 20:47:00,
2012-10-09 16:51:00,65.1,65.1,30.25,WSW,248,0.0,3.0,0,0.00,,,0.00,meteohub,2012-10-09 20:51:00,
2012-10-09 16:53:00,66.0,66.0,30.25,SE,135,3.0,3.0,0,0.00,,,0.00,meteohub,2012-10-09 20:53:00,
2012-10-09 16:56:00,66.4,66.4,30.25,East,90,2.0,3.0,0,0.00,,,0.00,meteohub,2012-10-09 20:56:00,
2012-10-09 16:57:00,66.2,66.2,30.26,East,90,2.0,3.0,0,0.00,,,0.00,meteohub,2012-10-09 20:57:00,
2012-10-09 16:58:00,65.8,65.8,30.25,South,180,4.0,4.0,0,0.00,,,0.00,meteohub,2012-10-09 20:58:00,
2012-10-09 17:01:00,65.5,65.5,30.25,WSW,248,4.0,4.0,0,0.00,,,0.00,meteohub,2012-10-09 21:01:00,
2012-10-09 17:02:00,65.5,65.5,30.25,WSW,248,4.0,4.0,0,0.00,,,0.00,meteohub,2012-10-09 21:02:00,
2012-10-09 17:03:00,65.5,65.5,30.25,WSW,248,4.0,4.0,0,0.00,,,0.00,meteohub,2012-10-09 21:03:00,
2012-10-09 17:04:00,65.5,65.5,30.25,WSW,248,4.0,4.0,0,0.00,,,0.00,meteohub,2012-10-09 21:04:00,
2012-10-09 17:06:00,65.5,65.5,30.25,WSW,248,4.0,4.0,0,0.00,,,0.00,meteohub,2012-10-09 21:06:00,
2012-10-09 17:07:00,60.8,60.8,30.25,East,90,0.0,4.0,0,0.00,,,0.00,meteohub,2012-10-09 21:07:00,
2012-10-09 17:09:00,60.6,60.6,30.25,East,90,0.0,4.0,0,0.00,,,0.00,meteohub,2012-10-09 21:09:00,
2012-10-09 17:12:00,60.1,60.1,30.26,North,0,0.0,4.0,0,0.00,,,0.00,meteohub,2012-10-09 21:12:00,
2012-10-09 17:15:00,59.5,59.5,30.25,South,180,0.0,4.0,0,0.00,,,0.00,meteohub,2012-10-09 21:15:00,
2012-10-09 17:17:00,59.5,59.5,30.25,South,180,0.0,4.0,0,0.00,,,0.00,meteohub,2012-10-09 21:17:00,
2012-10-09 17:18:00,59.4,59.4,30.25,North,0,0.0,4.0,0,0.00,,,0.00,meteohub,2012-10-09 21:18:00,
2012-10-09 17:20:00,59.2,59.2,30.25,North,0,0.0,4.0,0,0.00,,,0.00,meteohub,2012-10-09 21:20:00,
2012-10-09 17:21:00,59.2,59.2,30.25,North,0,0.0,4.0,0,0.00,,,0.00,meteohub,2012-10-09 21:21:00,
2012-10-09 17:22:00,59.2,59.2,30.25,North,0,0.0,4.0,0,0.00,,,0.00,meteohub,2012-10-09 21:22:00,
2012-10-09 17:23:00,59.2,59.2,30.25,North,0,0.0,4.0,0,0.00,,,0.00,meteohub,2012-10-09 21:23:00,
2012-10-09 17:25:00,59.2,59.2,30.25,SE,135,0.0,2.0,0,0.00,,,0.00,meteohub,2012-10-09 21:25:00,
2012-10-09 17:26:00,59.2,59.2,30.25,South,180,0.0,2.0,0,0.00,,,0.00,meteohub,2012-10-09 21:26:00,
2012-10-09 17:28:00,59.0,59.0,30.25,South,180,0.0,2.0,0,0.00,,,0.00,meteohub,2012-10-09 21:28:00,
2012-10-09 17:29:00,59.0,59.0,30.25,South,180,0.0,2.0,0,0.00,,,0.00,meteohub,2012-10-09 21:29:00,
2012-10-09 17:31:00,58.8,58.8,30.25,North,0,0.0,2.0,0,0.00,,,0.00,meteohub,2012-10-09 21:31:00,
2012-10-09 17:34:00,58.6,58.6,30.25,NW,315,0.0,2.0,0,0.00,,,0.00,meteohub,2012-10-09 21:34:00,
2012-10-09 17:37:00,58.3,58.3,30.25,NE,45,3.0,0.0,0,0.00,,,0.00,meteohub,2012-10-09 21:37:00,
2012-10-09 17:39:00,58.1,58.1,30.25,NW,315,0.0,0.0,0,0.00,,,0.00,meteohub,2012-10-09 21:39:00,
2012-10-09 17:42:00,57.7,57.7,30.25,West,270,0.0,3.0,0,0.00,,,0.00,meteohub,2012-10-09 21:42:00,
2012-10-09 17:44:00,57.4,57.4,30.25,West,270,2.0,3.0,0,0.00,,,0.00,meteohub,2012-10-09 21:44:00,
2012-10-09 17:47:00,57.2,57.2,30.25,NE,45,2.0,3.0,0,0.00,,,0.00,meteohub,2012-10-09 21:47:00,
2012-10-09 17:49:00,57.0,57.0,30.25,WSW,248,2.0,3.0,0,0.00,,,0.00,meteohub,2012-10-09 21:49:00,
2012-10-09 17:50:00,57.0,0.9,30.25,WSW,248,0.0,4.0,10,0.00,,,0.00,meteohub,2012-10-09 21:50:00,
2012-10-09 17:51:00,56.8,0.9,30.25,NW,315,0.0,4.0,10,0.00,,,0.00,meteohub,2012-10-09 21:51:00,
2012-10-09 17:53:00,56.7,0.7,30.25,NW,315,0.0,4.0,10,0.00,,,0.00,meteohub,2012-10-09 21:53:00,
2012-10-09 17:54:00,56.7,4.6,30.25,North,0,0.0,4.0,12,0.00,,,0.00,meteohub,2012-10-09 21:54:00,
2012-10-09 17:56:00,56.8,2.8,30.25,West,270,2.0,4.0,11,0.00,,,0.00,meteohub,2012-10-09 21:56:00,
2012-10-09 17:59:00,57.6,3.4,30.25,West,270,0.0,4.0,11,0.00,,,0.00,meteohub,2012-10-09 21:59:00,
2012-10-09 18:00:00,57.9,1.6,30.25,NW,315,2.0,4.0,10,0.00,,,0.00,meteohub,2012-10-09 22:00:00,
2012-10-09 18:01:00,57.9,1.6,30.25,NW,315,2.0,4.0,10,0.00,,,0.00,meteohub,2012-10-09 22:01:00,
2012-10-09 18:02:00,57.9,1.6,30.25,NW,315,2.0,4.0,10,0.00,,,0.00,meteohub,2012-10-09 22:02:00,
2012-10-09 18:05:00,57.9,1.6,30.25,NW,315,2.0,4.0,10,0.00,,,0.00,meteohub,2012-10-09 22:05:00,
2012-10-09 18:06:00,57.9,1.6,30.25,NW,315,2.0,2.0,10,0.00,,,0.00,meteohub,2012-10-09 22:06:00,
2012-10-09 18:07:00,57.9,1.6,30.25,NW,315,2.0,2.0,10,0.00,,,0.00,meteohub,2012-10-09 22:07:00,
2012-10-09 18:11:00,56.7,0.7,30.25,South,180,0.0,2.0,10,0.00,,,0.00,meteohub,2012-10-09 22:11:00,
2012-10-09 18:12:00,56.5,0.5,30.25,South,180,0.0,2.0,10,0.00,,,0.00,meteohub,2012-10-09 22:12:00,
2012-10-09 18:13:00,56.1,4.1,30.25,South,180,0.0,2.0,12,0.00,,,0.00,meteohub,2012-10-09 22:13:00,
2012-10-09 18:16:00,55.6,3.7,30.25,South,180,0.0,2.0,12,0.00,,,0.00,meteohub,2012-10-09 22:16:00,
2012-10-09 18:17:00,55.2,5.2,30.25,West,270,0.0,2.0,13,0.00,,,0.00,meteohub,2012-10-09 22:17:00,
2012-10-09 18:18:00,55.2,6.8,30.25,NW,315,0.0,2.0,14,0.00,,,0.00,meteohub,2012-10-09 22:18:00,
2012-10-09 18:21:00,54.7,7.9,30.25,West,270,0.0,2.0,15,0.00,,,0.00,meteohub,2012-10-09 22:21:00,
2012-10-09 18:22:00,54.5,7.7,30.25,West,270,0.0,2.0,15,0.00,,,0.00,meteohub,2012-10-09 22:22:00,
2012-10-09 18:23:00,54.5,7.7,30.25,West,270,0.0,2.0,15,0.00,,,0.00,meteohub,2012-10-09 22:23:00,
2012-10-09 18:24:00,54.5,7.7,30.25,West,270,0.0,2.0,15,0.00,,,0.00,meteohub,2012-10-09 22:24:00,
2012-10-09 18:28:00,54.0,11.5,30.25,North,0,0.0,0.0,18,0.00,,,0.00,meteohub,2012-10-09 22:28:00,
2012-10-09 18:29:00,53.8,12.4,30.25,North,0,0.0,0.0,19,0.00,,,0.00,meteohub,2012-10-09 22:29:00,
2012-10-09 18:30:00,53.8,12.4,30.25,North,0,0.0,0.0,19,0.00,,,0.00,meteohub,2012-10-09 22:30:00,
2012-10-09 18:33:00,53.2,12.0,30.26,North,0,0.0,0.0,19,0.00,,,0.00,meteohub,2012-10-09 22:33:00,
2012-10-09 18:34:00,53.2,12.0,30.26,North,0,0.0,0.0,19,0.00,,,0.00,meteohub,2012-10-09 22:34:00,
2012-10-09 18:35:00,52.9,11.7,30.26,North,0,0.0,0.0,19,0.00,,,0.00,meteohub,2012-10-09 22:35:00,
2012-10-09 18:38:00,52.7,12.7,30.26,NE,45,0.0,0.0,20,0.00,,,0.00,meteohub,2012-10-09 22:38:00,
2012-10-09 18:39:00,52.5,13.6,30.25,NE,45,0.0,0.0,21,0.00,,,0.00,meteohub,2012-10-09 22:39:00,
2012-10-09 18:42:00,52.3,13.5,30.25,NE,45,0.0,0.0,21,0.00,,,0.00,meteohub,2012-10-09 22:42:00,
2012-10-09 18:43:00,52.2,13.5,30.25,NE,45,0.0,0.0,21,0.00,,,0.00,meteohub,2012-10-09 22:43:00,
2012-10-09 18:45:00,52.0,14.4,30.26,NE,45,0.0,0.0,22,0.00,,,0.00,meteohub,2012-10-09 22:45:00,
2012-10-09 18:47:00,52.0,13.3,30.26,NE,45,0.0,0.0,21,0.00,,,0.00,meteohub,2012-10-09 22:47:00,
2012-10-09 18:49:00,51.6,12.9,30.26,NE,45,0.0,0.0,21,0.00,,,0.00,meteohub,2012-10-09 22:49:00,
2012-10-09 18:50:00,51.6,14.0,30.25,NE,45,0.0,0.0,22,0.00,,,0.00,meteohub,2012-10-09 22:50:00,
2012-10-09 18:52:00,51.4,13.8,30.25,NE,45,0.0,0.0,22,0.00,,,0.00,meteohub,2012-10-09 22:52:00,
2012-10-09 18:54:00,51.3,14.7,30.25,NE,45,0.0,0.0,23,0.00,,,0.00,meteohub,2012-10-09 22:54:00,
2012-10-09 18:55:00,51.3,14.7,30.25,NE,45,0.0,0.0,23,0.00,,,0.00,meteohub,2012-10-09 22:55:00,
2012-10-09 18:56:00,51.1,14.5,30.26,NE,45,0.0,0.0,23,0.00,,,0.00,meteohub,2012-10-09 22:56:00,
2012-10-09 18:57:00,51.1,15.4,30.25,NE,45,0.0,0.0,24,0.00,,,0.00,meteohub,2012-10-09 22:57:00,
2012-10-09 19:00:00,50.9,15.4,30.26,NE,45,0.0,0.0,24,0.00,,,0.00,meteohub,2012-10-09 23:00:00,
2012-10-09 19:01:00,50.9,15.4,30.25,NE,45,0.0,0.0,24,0.00,,,0.00,meteohub,2012-10-09 23:01:00,
2012-10-09 19:03:00,50.9,15.4,30.25,NE,45,0.0,0.0,24,0.00,,,0.00,meteohub,2012-10-09 23:03:00,
2012-10-09 19:05:00,50.9,15.4,30.25,NE,45,0.0,0.0,24,0.00,,,0.00,meteohub,2012-10-09 23:05:00,
2012-10-09 19:06:00,50.9,15.4,30.25,NE,45,0.0,0.0,24,0.00,,,0.00,meteohub,2012-10-09 23:06:00,
2012-10-09 19:09:00,50.5,17.8,30.25,SE,135,0.0,0.0,27,0.00,,,0.00,meteohub,2012-10-09 23:09:00,
2012-10-09 19:11:00,50.5,17.8,30.25,East,90,0.0,1.0,27,0.00,,,0.00,meteohub,2012-10-09 23:11:00,
2012-10-09 19:12:00,50.4,17.6,30.25,East,90,0.0,1.0,27,0.00,,,0.00,meteohub,2012-10-09 23:12:00,
2012-10-09 19:15:00,50.4,17.6,30.25,East,90,0.0,1.0,27,0.00,,,0.00,meteohub,2012-10-09 23:15:00,
2012-10-09 19:16:00,50.2,17.4,30.25,East,90,0.0,1.0,27,0.00,,,0.00,meteohub,2012-10-09 23:16:00,
2012-10-09 19:17:00,50.2,17.4,30.25,East,90,0.0,1.0,27,0.00,,,0.00,meteohub,2012-10-09 23:17:00,
2012-10-09 19:18:00,50.2,18.3,30.25,East,90,0.0,1.0,28,0.00,,,0.00,meteohub,2012-10-09 23:18:00,
2012-10-09 19:20:00,50.0,17.2,30.25,East,90,0.0,1.0,27,0.00,,,0.00,meteohub,2012-10-09 23:20:00,
2012-10-09 19:22:00,50.0,18.1,30.25,East,90,0.0,1.0,28,0.00,,,0.00,meteohub,2012-10-09 23:22:00,
2012-10-09 19:23:00,50.0,17.2,30.25,East,90,0.0,1.0,27,0.00,,,0.00,meteohub,2012-10-09 23:23:00,
2012-10-09 19:27:00,49.8,17.2,30.25,East,90,0.0,0.0,27,0.00,,,0.00,meteohub,2012-10-09 23:27:00,
2012-10-09 19:28:00,49.8,18.0,30.25,NE,45,0.0,0.0,28,0.00,,,0.00,meteohub,2012-10-09 23:28:00,
2012-10-09 19:32:00,50.0,18.1,30.26,NE,45,0.0,0.0,28,0.00,,,0.00,meteohub,2012-10-09 23:32:00,
2012-10-09 19:33:00,50.0,18.1,30.25,NE,45,0.0,0.0,28,0.00,,,0.00,meteohub,2012-10-09 23:33:00,
2012-10-09 19:34:00,50.0,18.1,30.25,NE,45,0.0,0.0,28,0.00,,,0.00,meteohub,2012-10-09 23:34:00,
2012-10-09 19:38:00,50.2,19.2,30.26,NE,45,0.0,0.0,29,0.00,,,0.00,meteohub,2012-10-09 23:38:00,
2012-10-09 19:39:00,50.4,19.2,30.25,East,90,0.0,0.0,29,0.00,,,0.00,meteohub,2012-10-09 23:39:00,
2012-10-09 19:40:00,50.4,19.2,30.25,East,90,0.0,0.0,29,0.00,,,0.00,meteohub,2012-10-09 23:40:00,
2012-10-09 19:43:00,50.4,20.1,30.26,East,90,0.0,0.0,30,0.00,,,0.00,meteohub,2012-10-09 23:43:00,
2012-10-09 19:44:00,50.4,20.8,30.25,South,180,0.0,0.0,31,0.00,,,0.00,meteohub,2012-10-09 23:44:00,
2012-10-09 19:45:00,50.4,21.6,30.25,South,180,0.0,0.0,32,0.00,,,0.00,meteohub,2012-10-09 23:45:00,
2012-10-09 19:48:00,50.2,22.1,30.25,East,90,2.0,0.0,33,0.00,,,0.00,meteohub,2012-10-09 23:48:00,
2012-10-09 19:49:00,50.2,22.8,30.25,East,90,2.0,0.0,34,0.00,,,0.00,meteohub,2012-10-09 23:49:00,
2012-10-09 19:50:00,50.2,22.8,30.25,East,90,2.0,0.0,34,0.00,,,0.00,meteohub,2012-10-09 23:50:00,
2012-10-09 19:54:00,50.2,22.8,30.25,East,90,6.0,6.0,34,0.00,,,0.00,meteohub,2012-10-09 23:54:00,
2012-10-09 19:55:00,50.4,22.3,30.25,East,90,3.0,4.0,33,0.00,,,0.00,meteohub,2012-10-09 23:55:00,
2012-10-09 19:56:00,50.4,21.6,30.25,East,90,4.0,4.0,32,0.00,,,0.00,meteohub,2012-10-09 23:56:00,
2012-10-09 19:59:00,50.7,21.9,30.25,NE,45,2.0,4.0,32,0.00,,,0.00,meteohub,2012-10-09 23:59:00,
2012-10-09 20:00:00,50.7,21.9,30.25,NE,45,2.0,4.0,32,0.00,,,0.00,meteohub,2012-10-10 00:00:00,
2012-10-09 20:02:00,50.9,22.8,30.25,SE,135,2.0,6.0,33,0.00,,,0.00,meteohub,2012-10-10 00:02:00,
2012-10-09 20:04:00,50.7,21.9,30.25,East,90,3.0,6.0,32,0.00,,,0.00,meteohub,2012-10-10 00:04:00,
2012-10-09 20:05:00,50.7,21.2,30.25,North,0,4.0,6.0,31,0.00,,,0.00,meteohub,2012-10-10 00:05:00,
2012-10-09 20:06:00,50.7,21.9,30.25,SE,135,3.0,6.0,32,0.00,,,0.00,meteohub,2012-10-10 00:06:00,
2012-10-09 20:08:00,50.7,21.9,30.25,SE,135,3.0,6.0,32,0.00,,,0.00,meteohub,2012-10-10 00:08:00,
2012-10-09 20:09:00,50.7,21.2,30.25,SE,135,4.0,6.0,31,0.00,,,0.00,meteohub,2012-10-10 00:09:00,
2012-10-09 20:10:00,50.7,20.5,30.25,East,90,4.0,4.0,30,0.00,,,0.00,meteohub,2012-10-10 00:10:00,
2012-10-09 20:11:00,50.7,21.2,30.25,SE,135,3.0,4.0,31,0.00,,,0.00,meteohub,2012-10-10 00:11:00,
2012-10-09 20:13:00,50.7,21.2,30.25,East,90,3.0,4.0,31,0.00,,,0.00,meteohub,2012-10-10 00:13:00,
2012-10-09 20:15:00,50.5,21.7,30.25,East,90,2.0,4.0,32,0.00,,,0.00,meteohub,2012-10-10 00:15:00,
2012-10-09 20:16:00,50.5,21.7,30.25,East,90,2.0,4.0,32,0.00,,,0.00,meteohub,2012-10-10 00:16:00,
2012-10-09 20:18:00,50.5,21.7,30.25,East,90,2.0,4.0,32,0.00,,,0.00,meteohub,2012-10-10 00:18:00,
2012-10-09 20:20:00,50.5,21.7,30.25,East,90,2.0,4.0,32,0.00,,,0.00,meteohub,2012-10-10 00:20:00,
2012-10-09 20:21:00,50.5,21.7,30.25,East,90,2.0,4.0,32,0.00,,,0.00,meteohub,2012-10-10 00:21:00,
2012-10-09 20:22:00,50.5,21.7,30.25,East,90,2.0,4.0,32,0.00,,,0.00,meteohub,2012-10-10 00:22:00,
2012-10-09 20:23:00,50.0,22.6,30.25,SE,135,3.0,4.0,34,0.00,,,0.00,meteohub,2012-10-10 00:23:00,
2012-10-09 20:26:00,49.8,23.2,30.25,SE,135,3.0,4.0,35,0.00,,,0.00,meteohub,2012-10-10 00:26:00,
2012-10-09 20:27:00,49.6,22.5,30.25,SE,135,2.0,4.0,34,0.00,,,0.00,meteohub,2012-10-10 00:27:00,
2012-10-09 20:28:00,49.6,22.5,30.25,SE,135,2.0,4.0,34,0.00,,,0.00,meteohub,2012-10-10 00:28:00,
2012-10-09 20:31:00,49.5,23.0,30.25,South,180,2.0,4.0,35,0.00,,,0.00,meteohub,2012-10-10 00:31:00,
2012-10-09 20:32:00,49.5,23.0,30.25,East,90,2.0,4.0,35,0.00,,,0.00,meteohub,2012-10-10 00:32:00,
2012-10-09 20:34:00,49.3,22.8,30.25,South,180,2.0,4.0,35,0.00,,,0.00,meteohub,2012-10-10 00:34:00,
2012-10-09 20:37:00,49.1,23.4,30.25,SE,135,0.0,4.0,36,0.00,,,0.00,meteohub,2012-10-10 00:37:00,
2012-10-09 20:38:00,48.9,23.2,30.24,SE,135,0.0,4.0,36,0.00,,,0.00,meteohub,2012-10-10 00:38:00,
2012-10-09 20:39:00,48.7,23.0,30.25,NE,45,0.0,4.0,36,0.00,,,0.00,meteohub,2012-10-10 00:39:00,
2012-10-09 20:42:00,48.7,24.3,30.25,East,90,0.0,4.0,38,0.00,,,0.00,meteohub,2012-10-10 00:42:00,
2012-10-09 20:44:00,48.6,24.8,30.25,South,180,0.0,4.0,39,0.00,,,0.00,meteohub,2012-10-10 00:44:00,
2012-10-09 20:45:00,48.6,24.8,30.25,South,180,0.0,4.0,39,0.00,,,0.00,meteohub,2012-10-10 00:45:00,
2012-10-09 20:47:00,48.2,24.4,30.25,South,180,0.0,3.0,39,0.00,,,0.00,meteohub,2012-10-10 00:47:00,
2012-10-09 20:48:00,48.2,24.4,30.25,East,90,2.0,3.0,39,0.00,,,0.00,meteohub,2012-10-10 00:48:00,
2012-10-09 20:49:00,48.2,24.4,30.25,East,90,2.0,3.0,39,0.00,,,0.00,meteohub,2012-10-10 00:49:00,
2012-10-09 20:50:00,48.2,24.4,30.25,SE,135,2.0,3.0,39,0.00,,,0.00,meteohub,2012-10-10 00:50:00,
2012-10-09 20:53:00,48.0,24.8,30.25,SE,135,2.0,2.0,40,0.00,,,0.00,meteohub,2012-10-10 00:53:00,
2012-10-09 20:54:00,48.0,24.8,30.25,East,90,2.0,2.0,40,0.00,,,0.00,meteohub,2012-10-10 00:54:00,
2012-10-09 20:55:00,48.0,24.8,30.25,North,0,2.0,4.0,40,0.00,,,0.00,meteohub,2012-10-10 00:55:00,
2012-10-09 20:59:00,48.2,25.5,30.25,South,180,2.0,4.0,41,0.00,,,0.00,meteohub,2012-10-10 00:59:00,
2012-10-09 21:01:00,48.2,25.5,30.25,South,180,3.0,4.0,41,0.00,,,0.00,meteohub,2012-10-10 01:01:00,
2012-10-09 21:04:00,48.2,25.5,30.25,South,180,3.0,4.0,41,0.00,,,0.00,meteohub,2012-10-10 01:04:00,
2012-10-09 21:05:00,48.2,25.5,30.25,South,180,3.0,4.0,41,0.00,,,0.00,meteohub,2012-10-10 01:05:00,
2012-10-09 21:07:00,48.4,24.6,30.25,SE,135,3.0,4.0,39,0.00,,,0.00,meteohub,2012-10-10 01:07:00,
2012-10-09 21:09:00,48.4,24.6,30.25,SE,135,2.0,4.0,39,0.00,,,0.00,meteohub,2012-10-10 01:09:00,
2012-10-09 21:10:00,48.4,24.6,30.25,SE,135,2.0,3.0,39,0.00,,,0.00,meteohub,2012-10-10 01:10:00,
2012-10-09 21:12:00,48.2,24.4,30.25,South,180,2.0,3.0,39,0.00,,,0.00,meteohub,2012-10-10 01:12:00,
2012-10-09 21:15:00,48.0,24.3,30.25,ENE,68,2.0,3.0,39,0.00,,,0.00,meteohub,2012-10-10 01:15:00,
2012-10-09 21:16:00,48.0,24.3,30.25,NE,45,2.0,3.0,39,0.00,,,0.00,meteohub,2012-10-10 01:16:00,
2012-10-09 21:19:00,47.8,24.1,30.25,SE,135,0.0,3.0,39,0.00,,,0.00,meteohub,2012-10-10 01:19:00,
2012-10-09 21:20:00,47.7,23.9,30.25,WSW,248,0.0,3.0,39,0.00,,,0.00,meteohub,2012-10-10 01:20:00,
2012-10-09 21:21:00,47.7,23.9,30.25,WSW,248,0.0,3.0,39,0.00,,,0.00,meteohub,2012-10-10 01:21:00,
2012-10-09 21:24:00,47.5,23.7,30.25,WSW,248,0.0,3.0,39,0.00,,,0.00,meteohub,2012-10-10 01:24:00,
2012-10-09 21:25:00,47.5,23.7,30.25,WSW,248,0.0,2.0,39,0.00,,,0.00,meteohub,2012-10-10 01:25:00,
2012-10-09 21:26:00,47.5,23.7,30.25,NW,315,0.0,2.0,39,0.00,,,0.00,meteohub,2012-10-10 01:26:00,
2012-10-09 21:27:00,47.5,23.7,30.25,NW,315,0.0,2.0,39,0.00,,,0.00,meteohub,2012-10-10 01:27:00,
2012-10-09 21:30:00,47.5,24.4,30.25,WSW,248,1.0,2.0,40,0.00,,,0.00,meteohub,2012-10-10 01:30:00,
2012-10-09 21:31:00,47.7,24.4,30.25,SE,135,2.0,4.0,40,0.00,,,0.00,meteohub,2012-10-10 01:31:00,
2012-10-09 21:32:00,47.7,24.4,30.25,South,180,1.0,4.0,40,0.00,,,0.00,meteohub,2012-10-10 01:32:00,
2012-10-09 21:35:00,47.5,24.4,30.25,SE,135,1.0,4.0,40,0.00,,,0.00,meteohub,2012-10-10 01:35:00,
2012-10-09 21:36:00,47.5,24.4,30.25,NW,315,0.0,4.0,40,0.00,,,0.00,meteohub,2012-10-10 01:36:00,
2012-10-09 21:37:00,47.5,24.4,30.25,NE,45,1.0,4.0,40,0.00,,,0.00,meteohub,2012-10-10 01:37:00,
2012-10-09 21:40:00,47.5,24.4,30.25,East,90,2.0,4.0,40,0.00,,,0.00,meteohub,2012-10-10 01:40:00,
2012-10-09 21:41:00,47.5,24.4,30.25,East,90,2.0,4.0,40,0.00,,,0.00,meteohub,2012-10-10 01:41:00,
2012-10-09 21:43:00,47.5,24.4,30.25,East,90,2.0,4.0,40,0.00,,,0.00,meteohub,2012-10-10 01:43:00,
2012-10-09 21:45:00,47.3,24.3,30.25,East,90,0.0,2.0,40,0.00,,,0.00,meteohub,2012-10-10 01:45:00,
2012-10-09 21:46:00,47.3,24.3,30.25,East,90,1.0,2.0,40,0.00,,,0.00,meteohub,2012-10-10 01:46:00,
2012-10-09 21:48:00,47.1,24.1,30.25,East,90,2.0,2.0,40,0.00,,,0.00,meteohub,2012-10-10 01:48:00,
2012-10-09 21:50:00,46.9,24.4,30.25,East,90,1.0,2.0,41,0.00,,,0.00,meteohub,2012-10-10 01:50:00,
2012-10-09 21:51:00,46.9,24.4,30.25,East,90,1.0,2.0,41,0.00,,,0.00,meteohub,2012-10-10 01:51:00,
2012-10-09 21:53:00,46.8,24.8,30.25,NE,45,2.0,2.0,42,0.00,,,0.00,meteohub,2012-10-10 01:53:00,
2012-10-09 21:54:00,46.8,24.8,30.25,SE,135,0.0,2.0,42,0.00,,,0.00,meteohub,2012-10-10 01:54:00,
2012-10-09 21:55:00,46.6,24.8,30.25,East,90,0.0,2.0,42,0.00,,,0.00,meteohub,2012-10-10 01:55:00,
2012-10-09 21:56:00,46.4,25.2,30.25,East,90,1.0,2.0,43,0.00,,,0.00,meteohub,2012-10-10 01:56:00,
2012-10-09 21:59:00,46.2,25.0,30.25,East,90,1.0,2.0,43,0.00,,,0.00,meteohub,2012-10-10 01:59:00,
2012-10-09 22:01:00,46.2,25.0,30.25,East,90,2.0,2.0,43,0.00,,,0.00,meteohub,2012-10-10 02:01:00,
2012-10-09 22:02:00,46.2,25.0,30.25,East,90,2.0,2.0,43,0.00,,,0.00,meteohub,2012-10-10 02:02:00,
2012-10-09 22:05:00,46.2,25.0,30.25,East,90,2.0,2.0,43,0.00,,,0.00,meteohub,2012-10-10 02:05:00,
2012-10-09 22:06:00,46.2,25.0,30.25,East,90,2.0,2.0,43,0.00,,,0.00,meteohub,2012-10-10 02:06:00,
2012-10-09 22:07:00,45.9,25.7,30.25,NE,45,0.0,2.0,45,0.00,,,0.00,meteohub,2012-10-10 02:07:00,
2012-10-09 22:11:00,45.7,25.5,30.25,NE,45,1.0,2.0,45,0.00,,,0.00,meteohub,2012-10-10 02:11:00,
2012-10-09 22:12:00,45.7,25.5,30.25,NE,45,1.0,2.0,45,0.00,,,0.00,meteohub,2012-10-10 02:12:00,
2012-10-09 22:16:00,45.5,25.9,30.25,SE,135,0.0,2.0,46,0.00,,,0.00,meteohub,2012-10-10 02:16:00,
2012-10-09 22:17:00,45.5,25.9,30.25,SE,135,0.0,2.0,46,0.00,,,0.00,meteohub,2012-10-10 02:17:00,
2012-10-09 22:18:00,45.5,25.9,30.25,SE,135,0.0,2.0,46,0.00,,,0.00,meteohub,2012-10-10 02:18:00,
2012-10-09 22:19:00,45.3,25.7,30.25,East,90,0.0,2.0,46,0.00,,,0.00,meteohub,2012-10-10 02:19:00,
2012-10-09 22:21:00,45.3,26.2,30.25,East,90,0.0,2.0,47,0.00,,,0.00,meteohub,2012-10-10 02:21:00,
2012-10-09 22:22:00,45.3,26.2,30.25,East,90,2.0,2.0,47,0.00,,,0.00,meteohub,2012-10-10 02:22:00,
2012-10-09 22:23:00,45.3,26.8,30.25,East,90,2.0,2.0,48,0.00,,,0.00,meteohub,2012-10-10 02:23:00,
2012-10-09 22:24:00,45.3,26.8,30.25,East,90,2.0,2.0,48,0.00,,,0.00,meteohub,2012-10-10 02:24:00,
2012-10-09 22:26:00,45.1,26.6,30.25,East,90,2.0,2.0,48,0.00,,,0.00,meteohub,2012-10-10 02:26:00,
2012-10-09 22:27:00,45.1,27.1,30.25,East,90,2.0,2.0,49,0.00,,,0.00,meteohub,2012-10-10 02:27:00,
2012-10-09 22:29:00,45.0,27.0,30.25,East,90,2.0,2.0,49,0.00,,,0.00,meteohub,2012-10-10 02:29:00,
2012-10-09 22:31:00,45.0,27.0,30.25,East,90,2.0,2.0,49,0.00,,,0.00,meteohub,2012-10-10 02:31:00,
2012-10-09 22:33:00,45.0,27.0,30.25,East,90,2.0,2.0,49,0.00,,,0.00,meteohub,2012-10-10 02:33:00,
2012-10-09 22:34:00,45.0,27.0,30.25,East,90,2.0,2.0,49,0.00,,,0.00,meteohub,2012-10-10 02:34:00,
2012-10-09 22:36:00,45.0,27.5,30.25,East,90,2.0,2.0,50,0.00,,,0.00,meteohub,2012-10-10 02:36:00,
2012-10-09 22:37:00,44.8,27.3,30.25,East,90,2.0,2.0,50,0.00,,,0.00,meteohub,2012-10-10 02:37:00,
2012-10-09 22:39:00,44.8,27.3,30.25,East,90,0.0,2.0,50,0.00,,,0.00,meteohub,2012-10-10 02:39:00,
2012-10-09 22:40:00,44.8,27.3,30.25,East,90,0.0,2.0,50,0.00,,,0.00,meteohub,2012-10-10 02:40:00,
2012-10-09 22:42:00,44.6,27.1,30.25,NE,45,0.0,2.0,50,0.00,,,0.00,meteohub,2012-10-10 02:42:00,
2012-10-09 22:43:00,44.6,27.1,30.25,NE,45,0.0,2.0,50,0.00,,,0.00,meteohub,2012-10-10 02:43:00,
2012-10-09 22:44:00,44.6,27.5,30.25,NE,45,0.0,2.0,51,0.00,,,0.00,meteohub,2012-10-10 02:44:00,
2012-10-09 22:45:00,44.6,27.5,30.25,SE,135,0.0,2.0,51,0.00,,,0.00,meteohub,2012-10-10 02:45:00,
2012-10-09 22:48:00,44.4,27.9,30.25,East,90,1.0,2.0,52,0.00,,,0.00,meteohub,2012-10-10 02:48:00,
2012-10-09 22:49:00,44.4,27.9,30.25,East,90,2.0,2.0,52,0.00,,,0.00,meteohub,2012-10-10 02:49:00,
2012-10-09 22:50:00,44.4,27.9,30.25,East,90,1.0,2.0,52,0.00,,,0.00,meteohub,2012-10-10 02:50:00,
2012-10-09 22:54:00,44.2,27.7,30.24,East,90,2.0,2.0,52,0.00,,,0.00,meteohub,2012-10-10 02:54:00,
2012-10-09 22:55:00,44.2,28.2,30.24,East,90,2.0,2.0,53,0.00,,,0.00,meteohub,2012-10-10 02:55:00,
2012-10-09 22:59:00,44.1,28.4,30.24,SE,135,0.0,2.0,54,0.00,,,0.00,meteohub,2012-10-10 02:59:00,
2012-10-09 23:00:00,44.1,28.4,30.24,SE,135,0.0,2.0,54,0.00,,,0.00,meteohub,2012-10-10 03:00:00,
2012-10-09 23:01:00,44.1,28.4,30.25,SE,135,0.0,2.0,54,0.00,,,0.00,meteohub,2012-10-10 03:01:00,
2012-10-09 23:02:00,44.1,28.4,30.24,SE,135,0.0,2.0,54,0.00,,,0.00,meteohub,2012-10-10 03:02:00,
2012-10-09 23:04:00,44.1,28.4,30.24,SE,135,0.0,2.0,54,0.00,,,0.00,meteohub,2012-10-10 03:04:00,
2012-10-09 23:06:00,44.1,28.4,30.24,SE,135,0.0,2.0,54,0.00,,,0.00,meteohub,2012-10-10 03:06:00,
2012-10-09 23:07:00,44.1,28.4,30.24,SE,135,0.0,2.0,54,0.00,,,0.00,meteohub,2012-10-10 03:07:00,
2012-10-09 23:08:00,44.1,28.9,30.24,East,90,2.0,2.0,55,0.00,,,0.00,meteohub,2012-10-10 03:08:00,
2012-10-09 23:09:00,44.1,28.9,30.24,NE,45,2.0,2.0,55,0.00,,,0.00,meteohub,2012-10-10 03:09:00,
2012-10-09 23:11:00,44.1,29.3,30.24,SE,135,3.0,3.0,56,0.00,,,0.00,meteohub,2012-10-10 03:11:00,
2012-10-09 23:12:00,44.1,29.3,30.24,NE,45,2.0,2.0,56,0.00,,,0.00,meteohub,2012-10-10 03:12:00,
2012-10-09 23:13:00,44.1,29.3,30.24,South,180,2.0,2.0,56,0.00,,,0.00,meteohub,2012-10-10 03:13:00,
2012-10-09 23:14:00,44.2,30.0,30.24,SE,135,2.0,2.0,57,0.00,,,0.00,meteohub,2012-10-10 03:14:00,
2012-10-09 23:17:00,44.4,30.2,30.24,East,90,2.0,3.0,57,0.00,,,0.00,meteohub,2012-10-10 03:17:00,
2012-10-09 23:18:00,44.6,30.4,30.24,SE,135,2.0,3.0,57,0.00,,,0.00,meteohub,2012-10-10 03:18:00,
2012-10-09 23:19:00,44.6,30.4,30.24,East,90,2.0,3.0,57,0.00,,,0.00,meteohub,2012-10-10 03:19:00,
2012-10-09 23:23:00,44.6,30.4,30.24,SE,135,2.0,3.0,57,0.00,,,0.00,meteohub,2012-10-10 03:23:00,
2012-10-09 23:24:00,44.6,30.4,30.24,East,90,0.0,3.0,57,0.00,,,0.00,meteohub,2012-10-10 03:24:00,
2012-10-09 23:26:00,44.6,30.4,30.24,East,90,2.0,3.0,57,0.00,,,0.00,meteohub,2012-10-10 03:26:00,
2012-10-09 23:29:00,44.4,30.2,30.24,NE,45,2.0,3.0,57,0.00,,,0.00,meteohub,2012-10-10 03:29:00,
2012-10-09 23:30:00,44.4,30.2,30.24,SE,135,2.0,3.0,57,0.00,,,0.00,meteohub,2012-10-10 03:30:00,
2012-10-09 23:31:00,44.4,30.2,30.23,SE,135,1.0,2.0,57,0.00,,,0.00,meteohub,2012-10-10 03:31:00,
2012-10-09 23:34:00,44.2,30.0,30.23,West,270,1.0,2.0,57,0.00,,,0.00,meteohub,2012-10-10 03:34:00,
2012-10-09 23:35:00,44.2,30.0,30.23,West,270,1.0,2.0,57,0.00,,,0.00,meteohub,2012-10-10 03:35:00,
2012-10-09 23:36:00,44.1,29.8,30.23,SE,135,2.0,2.0,57,0.00,,,0.00,meteohub,2012-10-10 03:36:00,
2012-10-09 23:40:00,44.1,29.8,30.22,SE,135,0.0,2.0,57,0.00,,,0.00,meteohub,2012-10-10 03:40:00,
2012-10-09 23:42:00,44.1,29.8,30.22,SE,135,0.0,2.0,57,0.00,,,0.00,meteohub,2012-10-10 03:42:00,
2012-10-09 23:45:00,43.9,30.0,30.22,SE,135,2.0,2.0,58,0.00,,,0.00,meteohub,2012-10-10 03:45:00,
2012-10-09 23:46:00,43.9,30.0,30.22,SE,135,0.0,2.0,58,0.00,,,0.00,meteohub,2012-10-10 03:46:00,
2012-10-09 23:47:00,43.9,30.0,30.22,SE,135,0.0,2.0,58,0.00,,,0.00,meteohub,2012-10-10 03:47:00,
2012-10-09 23:50:00,43.7,29.8,30.23,South,180,0.0,2.0,58,0.00,,,0.00,meteohub,2012-10-10 03:50:00,
2012-10-09 23:51:00,43.7,29.8,30.23,NW,315,1.0,2.0,58,0.00,,,0.00,meteohub,2012-10-10 03:51:00,
2012-10-09 23:53:00,43.7,29.8,30.22,East,90,2.0,2.0,58,0.00,,,0.00,meteohub,2012-10-10 03:53:00,
2012-10-09 23:56:00,43.7,30.4,30.22,NE,45,2.0,2.0,59,0.00,,,0.00,meteohub,2012-10-10 03:56:00,
2012-10-09 23:57:00,43.7,30.4,30.22,East,90,1.0,2.0,59,0.00,,,0.00,meteohub,2012-10-10 03:57:00,
2012-10-09 23:58:00,43.7,30.4,30.22,SE,135,2.0,2.0,59,0.00,,,0.00,meteohub,2012-10-10 03:58:00,